Observation data for Menard on 12/06/2018      Previous  Date       Current Mesonet Observations  Soil Data  Daily Summary Page  Observations in Plain Language
KMD1 060600Z 19009KT 10/05 A302 RMK A01 T01020054  RH  072%=      5-min Rain = 0
KMD1 060601Z 19011KT 10/05 A302 RMK A01 T01020054  RH  072%=      5-min Rain = 0
KMD1 060602Z 20010KT 10/05 A302 RMK A01 T01020054  RH  072%=      5-min Rain = 0
KMD1 060603Z 19009G15KT 10/05 A302 RMK A01 T01020054  RH  072%=      5-min Rain = 0
KMD1 060604Z 19013KT 10/05 A302 RMK A01 T01020054  RH  072%=      5-min Rain = 0
KMD1 060605Z 19012KT 10/06 A302 RMK A01 T01020055  RH  073%=      5-min Rain = 0
KMD1 060606Z 19009KT 10/06 A302 RMK A01 T01020055  RH  073%=      5-min Rain = 0
KMD1 060607Z 18007KT 10/06 A302 RMK A01 T01020055  RH  073%=      5-min Rain = 0
KMD1 060608Z 19010KT 10/06 A3019 RMK A01 T01020055  RH  073%=      5-min Rain = 0
KMD1 060609Z 18012KT 10/06 A3019 RMK A01 T01020055  RH  073%=      5-min Rain = 0
KMD1 060610Z 18011KT 10/06 A3019 RMK A01 T01020055  RH  073%=      5-min Rain = 0
KMD1 060611Z 19010KT 10/06 A3019 RMK A01 T01020055  RH  073%=      5-min Rain = 0
KMD1 060612Z 19009KT 10/06 A3019 RMK A01 T01020056  RH  073%=      5-min Rain = 0
KMD1 060613Z 19009KT 10/06 A3019 RMK A01 T01020056  RH  073%=      5-min Rain = 0
KMD1 060614Z 19009KT 10/06 A3019 RMK A01 T01020056  RH  073%=      5-min Rain = 0
KMD1 060615Z 19011KT 10/06 A3019 RMK A01 T01020056  RH  073%=      5-min Rain = 0
KMD1 060616Z 19011KT 10/06 A3019 RMK A01 T01020056  RH  073%=      5-min Rain = 0
KMD1 060617Z 19010G17KT 10/06 A3019 RMK A01 T01020056  RH  073%=      5-min Rain = 0
KMD1 060618Z 18013KT 10/06 A3019 RMK A01 T01010056  RH  074%=      5-min Rain = 0
KMD1 060619Z 20008KT 10/06 A3019 RMK A01 T01010057  RH  074%=      5-min Rain = 0
KMD1 060620Z 20008KT 10/06 A3019 RMK A01 T01010056  RH  074%=      5-min Rain = 0
KMD1 060621Z 19008KT 10/06 A3019 RMK A01 T01010057  RH  074%=      5-min Rain = 0
KMD1 060622Z 19009G16KT 10/06 A3019 RMK A01 T01010057  RH  074%=      5-min Rain = 0
KMD1 060623Z 20013KT 10/06 A3019 RMK A01 T01010057  RH  074%=      5-min Rain = 0
KMD1 060624Z 20012KT 10/06 A3019 RMK A01 T01010057  RH  074%=      5-min Rain = 0
KMD1 060625Z 19010KT 10/06 A302 RMK A01 T01010057  RH  074%=      5-min Rain = 0
KMD1 060626Z 19009KT 10/06 A302 RMK A01 T01010057  RH  074%=      5-min Rain = 0
KMD1 060627Z 20008KT 10/06 A302 RMK A01 T01010057  RH  074%=      5-min Rain = 0
KMD1 060628Z 19009KT 10/06 A302 RMK A01 T01010057  RH  074%=      5-min Rain = 0
KMD1 060629Z 19010KT 10/06 A3019 RMK A01 T01010057  RH  074%=      5-min Rain = 0
KMD1 060630Z 20011KT 10/06 A3019 RMK A01 T01010057  RH  074%=      5-min Rain = 0
KMD1 060631Z 19007KT 10/06 A3019 RMK A01 T01010057  RH  074%=      5-min Rain = 0
KMD1 060632Z 19008G13KT 10/06 A3019 RMK A01 T01010057  RH  074%=      5-min Rain = 0
KMD1 060633Z 19009KT 10/06 A3019 RMK A01 T01010058  RH  074%=      5-min Rain = 0
KMD1 060634Z 19008KT 10/06 A3019 RMK A01 T01010058  RH  075%=      5-min Rain = 0
KMD1 060635Z 19007KT 10/06 A3019 RMK A01 T01010058  RH  075%=      5-min Rain = 0
KMD1 060636Z 19007KT 10/06 A3019 RMK A01 T01010058  RH  075%=      5-min Rain = 0
KMD1 060637Z 19007KT 10/06 A3019 RMK A01 T01010058  RH  075%=      5-min Rain = 0
KMD1 060638Z 19007KT 10/06 A3019 RMK A01 T01010059  RH  075%=      5-min Rain = 0
KMD1 060639Z 18008KT 10/06 A3019 RMK A01 T01010059  RH  075%=      5-min Rain = 0
KMD1 060640Z 18009KT 10/06 A3019 RMK A01 T01010059  RH  076%=      5-min Rain = 0
KMD1 060641Z 19011KT 10/06 A3019 RMK A01 T01010060  RH  076%=      5-min Rain = 0
KMD1 060642Z 19008KT 10/06 A3019 RMK A01 T01010061  RH  076%=      5-min Rain = 0
KMD1 060643Z 19008KT 10/06 A3019 RMK A01 T01010061  RH  076%=      5-min Rain = 0
KMD1 060644Z 19008KT 10/06 A3019 RMK A01 T01010061  RH  076%=      5-min Rain = 0
KMD1 060645Z 19008KT 10/06 A3019 RMK A01 T01010061  RH  077%=      5-min Rain = 0
KMD1 060646Z 18007KT 10/06 A3019 RMK A01 T01010062  RH  077%=      5-min Rain = 0
KMD1 060647Z 18007KT 10/06 A3019 RMK A01 T01010062  RH  077%=      5-min Rain = 0
KMD1 060648Z 19010KT 10/06 A3018 RMK A01 T01000062  RH  077%=      5-min Rain = 0
KMD1 060649Z 19009KT 10/06 A3018 RMK A01 T01000063  RH  077%=      5-min Rain = 0
KMD1 060650Z 19010KT 10/06 A3018 RMK A01 T01000063  RH  077%=      5-min Rain = 0
KMD1 060651Z 18011KT 10/06 A3018 RMK A01 T01000063  RH  078%=      5-min Rain = 0
KMD1 060652Z 19011G17KT 10/06 A3018 RMK A01 T01000063  RH  078%=      5-min Rain = 0
KMD1 060653Z 19012KT 10/06 A3019 RMK A01 T01000064  RH  078%=      5-min Rain = 0
KMD1 060654Z 19010KT 10/06 A3018 RMK A01 T01000064  RH  078%=      5-min Rain = 0
KMD1 060655Z 19011KT 10/06 A3018 RMK A01 T01000064  RH  078%=      5-min Rain = 0
KMD1 060656Z 19012KT 10/06 A3018 RMK A01 T01000064  RH  078%=      5-min Rain = 0
KMD1 060657Z 19009KT 10/06 A3018 RMK A01 T01000064  RH  078%=      5-min Rain = 0
KMD1 060658Z 19011KT 10/06 A3018 RMK A01 T01000064  RH  078%=      5-min Rain = 0
KMD1 060659Z 19009KT 10/06 A3018 RMK A01 T01000064  RH  078%=      5-min Rain = 0
KMD1 060700Z 19008KT 10/06 A3019 RMK A01 T01000064  RH  078%=      5-min Rain = 0
KMD1 060701Z 19007KT 10/06 A3019 RMK A01 T01000064  RH  078%=      5-min Rain = 0
KMD1 060702Z 19005KT 10/06 A3019 RMK A01 T01000064  RH  078%=      5-min Rain = 0
KMD1 060703Z 19009KT 10/06 A3019 RMK A01 T01000064  RH  078%=      5-min Rain = 0
KMD1 060704Z 20008KT 10/06 A3019 RMK A01 T01000064  RH  078%=      5-min Rain = 0
KMD1 060705Z 21009KT 10/06 A3018 RMK A01 T01000064  RH  078%=      5-min Rain = 0
KMD1 060706Z 20008G13KT 10/06 A3019 RMK A01 T01000064  RH  078%=      5-min Rain = 0
KMD1 060707Z 20009KT 10/06 A3019 RMK A01 T00990064  RH  079%=      5-min Rain = 0
KMD1 060708Z 20009KT 10/06 A3018 RMK A01 T00990064  RH  079%=      5-min Rain = 0
KMD1 060709Z 20008KT 10/06 A3019 RMK A01 T01000064  RH  079%=      5-min Rain = 0
KMD1 060710Z 19008KT 10/06 A3019 RMK A01 T00990064  RH  079%=      5-min Rain = 0
KMD1 060711Z 20007KT 10/06 A3018 RMK A01 T00990064  RH  079%=      5-min Rain = 0
KMD1 060712Z 20006KT 10/07 A3018 RMK A01 T00990065  RH  079%=      5-min Rain = 0
KMD1 060713Z 21011KT 10/07 A3018 RMK A01 T00990065  RH  079%=      5-min Rain = 0
KMD1 060714Z 20010KT 10/07 A3018 RMK A01 T00990065  RH  079%=      5-min Rain = 0
KMD1 060715Z 21010KT 10/07 A3018 RMK A01 T00990065  RH  079%=      5-min Rain = 0
KMD1 060716Z 20010KT 10/06 A3018 RMK A01 T00990064  RH  079%=      5-min Rain = 0
KMD1 060717Z 19008KT 10/07 A3018 RMK A01 T00990065  RH  079%=      5-min Rain = 0
KMD1 060718Z 19007KT 10/07 A3018 RMK A01 T00990065  RH  079%=      5-min Rain = 0
KMD1 060719Z 20007KT 10/07 A3018 RMK A01 T00990065  RH  079%=      5-min Rain = 0
KMD1 060720Z 19011KT 10/07 A3018 RMK A01 T00990065  RH  079%=      5-min Rain = 0
KMD1 060721Z 20011KT 10/06 A3018 RMK A01 T00980064  RH  079%=      5-min Rain = 0
KMD1 060722Z 20008KT 10/07 A3018 RMK A01 T00990065  RH  079%=      5-min Rain = 0
KMD1 060723Z 19009KT 10/07 A3018 RMK A01 T00980065  RH  080%=      5-min Rain = 0
KMD1 060724Z 20006KT 10/07 A3018 RMK A01 T00980065  RH  080%=      5-min Rain = 0
KMD1 060725Z 19008KT 10/07 A3018 RMK A01 T00980065  RH  080%=      5-min Rain = 0
KMD1 060726Z 19008KT 10/07 A3018 RMK A01 T00980065  RH  079%=      5-min Rain = 0
KMD1 060727Z 20009KT 10/07 A3018 RMK A01 T00990065  RH  080%=      5-min Rain = 0
KMD1 060728Z 19008KT 10/07 A3018 RMK A01 T00980065  RH  080%=      5-min Rain = 0
KMD1 060729Z 19006KT 10/07 A3018 RMK A01 T00980065  RH  079%=      5-min Rain = 0
KMD1 060730Z 19007KT 10/07 A3018 RMK A01 T00980065  RH  079%=      5-min Rain = 0
KMD1 060731Z 19008KT 10/06 A3018 RMK A01 T00980064  RH  079%=      5-min Rain = 0
KMD1 060732Z 19009KT 10/06 A3018 RMK A01 T00980064  RH  079%=      5-min Rain = 0
KMD1 060733Z 19007KT 10/07 A3017 RMK A01 T00980065  RH  079%=      5-min Rain = 0
KMD1 060734Z 21007KT 10/06 A3018 RMK A01 T00980064  RH  079%=      5-min Rain = 0
KMD1 060735Z 20007KT 10/06 A3018 RMK A01 T00980064  RH  080%=      5-min Rain = 0
KMD1 060736Z 20007KT 10/06 A3018 RMK A01 T00980064  RH  080%=      5-min Rain = 0
KMD1 060737Z 20008KT 10/07 A3018 RMK A01 T00980065  RH  080%=      5-min Rain = 0
KMD1 060738Z 20008KT 10/06 A3018 RMK A01 T00980064  RH  080%=      5-min Rain = 0
KMD1 060739Z 20006KT 10/06 A3017 RMK A01 T00980064  RH  079%=      5-min Rain = 0
KMD1 060740Z 20007KT 10/06 A3018 RMK A01 T00980063  RH  079%=      5-min Rain = 0
KMD1 060741Z 19007KT 10/06 A3017 RMK A01 T00980063  RH  079%=      5-min Rain = 0
KMD1 060742Z 19006KT 10/06 A3017 RMK A01 T00980063  RH  079%=      5-min Rain = 0
KMD1 060743Z 20005KT 10/06 A3017 RMK A01 T00970063  RH  079%=      5-min Rain = 0
KMD1 060744Z 20005KT 10/06 A3017 RMK A01 T00980063  RH  079%=      5-min Rain = 0
KMD1 060745Z 19004KT 10/06 A3017 RMK A01 T00980063  RH  079%=      5-min Rain = 0
KMD1 060746Z 19004KT 10/06 A3017 RMK A01 T00970063  RH  079%=      5-min Rain = 0
KMD1 060747Z 19005KT 10/06 A3017 RMK A01 T00970063  RH  079%=      5-min Rain = 0
KMD1 060748Z 20005KT 10/06 A3017 RMK A01 T00970063  RH  079%=      5-min Rain = 0
KMD1 060749Z 20006KT 10/06 A3017 RMK A01 T00970063  RH  079%=      5-min Rain = 0
KMD1 060750Z 19004KT 10/06 A3017 RMK A01 T00970064  RH  080%=      5-min Rain = 0
KMD1 060751Z 19005KT 10/07 A3017 RMK A01 T00970065  RH  080%=      5-min Rain = 0
KMD1 060752Z 20005KT 10/06 A3017 RMK A01 T00970064  RH  080%=      5-min Rain = 0
KMD1 060753Z 20006KT 10/06 A3017 RMK A01 T00970064  RH  080%=      5-min Rain = 0
KMD1 060754Z 20006KT 10/06 A3017 RMK A01 T00970064  RH  080%=      5-min Rain = 0
KMD1 060755Z 20005KT 10/07 A3017 RMK A01 T00970065  RH  080%=      5-min Rain = 0
KMD1 060756Z 20005KT 10/06 A3017 RMK A01 T00970064  RH  080%=      5-min Rain = 0
KMD1 060757Z 16004KT 10/07 A3017 RMK A01 T00970065  RH  080%=      5-min Rain = 0
KMD1 060758Z 19007KT 10/07 A3017 RMK A01 T00970065  RH  081%=      5-min Rain = 0
KMD1 060759Z 20006KT 10/07 A3017 RMK A01 T00970065  RH  081%=      5-min Rain = 0
KMD1 060800Z 20007KT 10/07 A3017 RMK A01 T00970066  RH  081%=      5-min Rain = 0
KMD1 060801Z 19010KT 10/07 A3017 RMK A01 T00970067  RH  081%=      5-min Rain = 0
KMD1 060802Z 19009KT 10/07 A3017 RMK A01 T00970067  RH  082%=      5-min Rain = 0
KMD1 060803Z 20010G19KT 10/07 A3017 RMK A01 T00970068  RH  082%=      5-min Rain = 0
KMD1 060804Z 19012KT 10/07 A3017 RMK A01 T00970068  RH  082%=      5-min Rain = 0
KMD1 060805Z 19010G16KT 10/07 A3017 RMK A01 T00970068  RH  082%=      5-min Rain = 0
KMD1 060806Z 20010KT 10/07 A3017 RMK A01 T00970069  RH  082%=      5-min Rain = 0
KMD1 060807Z 19009KT 10/07 A3017 RMK A01 T00970069  RH  083%=      5-min Rain = 0
KMD1 060808Z 19012KT 10/07 A3017 RMK A01 T00970069  RH  083%=      5-min Rain = 0
KMD1 060809Z 19010KT 10/07 A3017 RMK A01 T00970069  RH  083%=      5-min Rain = 0
KMD1 060810Z 19011KT 10/07 A3016 RMK A01 T00970069  RH  083%=      5-min Rain = 0
KMD1 060811Z 18009KT 10/07 A3016 RMK A01 T00970069  RH  083%=      5-min Rain = 0
KMD1 060812Z 19008KT 10/07 A3016 RMK A01 T00970070  RH  083%=      5-min Rain = 0
KMD1 060813Z 20010KT 10/07 A3016 RMK A01 T00970070  RH  083%=      5-min Rain = 0
KMD1 060814Z 19010KT 10/07 A3016 RMK A01 T00970070  RH  083%=      5-min Rain = 0
KMD1 060815Z 19011KT 10/07 A3016 RMK A01 T00970070  RH  083%=      5-min Rain = 0
KMD1 060816Z 18009KT 10/07 A3016 RMK A01 T00970069  RH  083%=      5-min Rain = 0
KMD1 060817Z 18008KT 10/07 A3016 RMK A01 T00970069  RH  083%=      5-min Rain = 0
KMD1 060818Z 18008KT 10/07 A3016 RMK A01 T00970070  RH  083%=      5-min Rain = 0
KMD1 060819Z 19007KT 10/07 A3016 RMK A01 T00970070  RH  083%=      5-min Rain = 0
KMD1 060820Z 19007KT 10/07 A3016 RMK A01 T00970070  RH  083%=      5-min Rain = 0
KMD1 060821Z 19006KT 10/07 A3016 RMK A01 T00970070  RH  083%=      5-min Rain = 0
KMD1 060822Z 19005KT 10/07 A3016 RMK A01 T00960069  RH  083%=      5-min Rain = 0
KMD1 060823Z 19006KT 10/07 A3016 RMK A01 T00960069  RH  083%=      5-min Rain = 0
KMD1 060824Z 21007KT 10/07 A3016 RMK A01 T00960069  RH  083%=      5-min Rain = 0
KMD1 060825Z 22009KT 10/07 A3016 RMK A01 T00960069  RH  083%=      5-min Rain = 0
KMD1 060826Z 19008KT 10/07 A3016 RMK A01 T00960070  RH  084%=      5-min Rain = 0
KMD1 060827Z 21008G13KT 10/07 A3015 RMK A01 T00960069  RH  084%=      5-min Rain = 0
KMD1 060828Z 20010KT 10/07 A3015 RMK A01 T00960069  RH  084%=      5-min Rain = 0
KMD1 060829Z 20012KT 10/07 A3015 RMK A01 T00960069  RH  084%=      5-min Rain = 0
KMD1 060830Z 20010KT 10/07 A3015 RMK A01 T00950069  RH  084%=      5-min Rain = 0
KMD1 060831Z 19009KT 10/07 A3015 RMK A01 T00950069  RH  084%=      5-min Rain = 0
KMD1 060832Z 19010KT 09/07 A3015 RMK A01 T00940069  RH  084%=      5-min Rain = 0
KMD1 060833Z 19009KT 09/07 A3015 RMK A01 T00940069  RH  084%=      5-min Rain = 0
KMD1 060834Z 19008KT 09/07 A3015 RMK A01 T00940069  RH  084%=      5-min Rain = 0
KMD1 060835Z 20007G12KT 09/07 A3015 RMK A01 T00940069  RH  084%=      5-min Rain = 0
KMD1 060836Z 19006KT 09/07 A3015 RMK A01 T00940069  RH  084%=      5-min Rain = 0
KMD1 060837Z 20008KT 09/07 A3016 RMK A01 T00940069  RH  084%=      5-min Rain = 0
KMD1 060838Z 19007KT 09/07 A3016 RMK A01 T00940069  RH  084%=      5-min Rain = 0
KMD1 060839Z 19006KT 09/07 A3016 RMK A01 T00930069  RH  084%=      5-min Rain = 0
KMD1 060840Z 19006KT 09/07 A3016 RMK A01 T00940069  RH  084%=      5-min Rain = 0
KMD1 060841Z 19006KT 09/07 A3016 RMK A01 T00940069  RH  085%=      5-min Rain = 0
KMD1 060842Z 19007KT 09/07 A3016 RMK A01 T00940069  RH  085%=      5-min Rain = 0
KMD1 060843Z 19007KT 09/07 A3016 RMK A01 T00930069  RH  085%=      5-min Rain = 0
KMD1 060844Z 19009KT 09/07 A3016 RMK A01 T00940069  RH  085%=      5-min Rain = 0
KMD1 060845Z 20009KT 09/07 A3016 RMK A01 T00930069  RH  085%=      5-min Rain = 0
KMD1 060846Z 19013KT 09/07 A3016 RMK A01 T00930069  RH  085%=      5-min Rain = 0
KMD1 060847Z 20010KT 09/07 A3015 RMK A01 T00930069  RH  085%=      5-min Rain = 0
KMD1 060848Z 20010KT 09/07 A3015 RMK A01 T00930069  RH  085%=      5-min Rain = 0
KMD1 060849Z 18011KT 09/07 A3016 RMK A01 T00930069  RH  085%=      5-min Rain = 0
KMD1 060850Z 19010KT 09/07 A3015 RMK A01 T00930069  RH  085%=      5-min Rain = 0
KMD1 060851Z 20009KT 09/07 A3015 RMK A01 T00930069  RH  085%=      5-min Rain = 0
KMD1 060852Z 19010KT 09/07 A3015 RMK A01 T00920069  RH  085%=      5-min Rain = 0
KMD1 060853Z 19011KT 09/07 A3015 RMK A01 T00920069  RH  085%=      5-min Rain = 0
KMD1 060854Z 19009KT 09/07 A3015 RMK A01 T00930070  RH  086%=      5-min Rain = 0
KMD1 060855Z 19008KT 09/07 A3015 RMK A01 T00930070  RH  086%=      5-min Rain = 0
KMD1 060856Z 18009KT 09/07 A3015 RMK A01 T00920070  RH  086%=      5-min Rain = 0
KMD1 060857Z 18009KT 09/07 A3015 RMK A01 T00930070  RH  086%=      5-min Rain = 0
KMD1 060858Z 18009KT 09/07 A3015 RMK A01 T00920070  RH  086%=      5-min Rain = 0
KMD1 060859Z 18008KT 09/07 A3015 RMK A01 T00920070  RH  086%=      5-min Rain = 0
KMD1 060900Z 19007KT 09/07 A3015 RMK A01 T00920070  RH  086%=      5-min Rain = 0
KMD1 060901Z 18009KT 09/07 A3015 RMK A01 T00920070  RH  086%=      5-min Rain = 0
KMD1 060902Z 19010KT 09/07 A3015 RMK A01 T00920069  RH  086%=      5-min Rain = 0
KMD1 060903Z 18007KT 09/07 A3015 RMK A01 T00920070  RH  086%=      5-min Rain = 0
KMD1 060904Z 18006G11KT 09/07 A3015 RMK A01 T00920070  RH  086%=      5-min Rain = 0
KMD1 060905Z 18008KT 09/07 A3015 RMK A01 T00920070  RH  086%=      5-min Rain = 0
KMD1 060906Z 19010KT 09/07 A3015 RMK A01 T00920070  RH  086%=      5-min Rain = 0
KMD1 060907Z 18009KT 09/07 A3015 RMK A01 T00920070  RH  086%=      5-min Rain = 0
KMD1 060908Z 19007KT 09/07 A3015 RMK A01 T00920070  RH  086%=      5-min Rain = 0
KMD1 060909Z 19006KT 09/07 A3015 RMK A01 T00920070  RH  086%=      5-min Rain = 0
KMD1 060910Z 19006KT 09/07 A3015 RMK A01 T00920070  RH  086%=      5-min Rain = 0
KMD1 060911Z 19006KT 09/07 A3015 RMK A01 T00920070  RH  086%=      5-min Rain = 0
KMD1 060912Z 20006KT 09/07 A3015 RMK A01 T00920070  RH  086%=      5-min Rain = 0
KMD1 060913Z 19006KT 09/07 A3015 RMK A01 T00920070  RH  086%=      5-min Rain = 0
KMD1 060914Z 18006KT 09/07 A3015 RMK A01 T00920070  RH  086%=      5-min Rain = 0
KMD1 060915Z 19005KT 09/07 A3015 RMK A01 T00920070  RH  086%=      5-min Rain = 0
KMD1 060916Z 18007KT 09/07 A3015 RMK A01 T00920070  RH  086%=      5-min Rain = 0
KMD1 060917Z 18008KT 09/07 A3015 RMK A01 T00920070  RH  086%=      5-min Rain = 0
KMD1 060918Z 19010KT 09/07 A3015 RMK A01 T00920070  RH  086%=      5-min Rain = 0
KMD1 060919Z 19007KT 09/07 A3015 RMK A01 T00920070  RH  086%=      5-min Rain = 0
KMD1 060920Z 18007KT 09/07 A3015 RMK A01 T00920071  RH  086%=      5-min Rain = 0
KMD1 060921Z 19006KT 09/07 A3015 RMK A01 T00920071  RH  086%=      5-min Rain = 0
KMD1 060922Z 19005KT 09/07 A3015 RMK A01 T00920071  RH  086%=      5-min Rain = 0
KMD1 060923Z 21005KT 09/07 A3015 RMK A01 T00920071  RH  086%=      5-min Rain = 0
KMD1 060924Z 19003KT 09/07 A3015 RMK A01 T00920071  RH  086%=      5-min Rain = 0
KMD1 060925Z 20005KT 09/07 A3015 RMK A01 T00920071  RH  086%=      5-min Rain = 0
KMD1 060926Z 20007KT 09/07 A3015 RMK A01 T00920071  RH  086%=      5-min Rain = 0
KMD1 060927Z 21004KT 09/07 A3015 RMK A01 T00920071  RH  087%=      5-min Rain = 0
KMD1 060928Z 19004KT 09/07 A3015 RMK A01 T00920071  RH  087%=      5-min Rain = 0
KMD1 060929Z 19006KT 09/07 A3015 RMK A01 T00920071  RH  087%=      5-min Rain = 0
KMD1 060930Z 19005KT 09/07 A3015 RMK A01 T00920071  RH  087%=      5-min Rain = 0
KMD1 060931Z 18005KT 09/07 A3015 RMK A01 T00920071  RH  087%=      5-min Rain = 0
KMD1 060932Z 19008KT 09/07 A3015 RMK A01 T00920071  RH  087%=      5-min Rain = 0
KMD1 060933Z 19007KT 09/07 A3015 RMK A01 T00920071  RH  087%=      5-min Rain = 0
KMD1 060934Z 19007KT 09/07 A3015 RMK A01 T00920071  RH  087%=      5-min Rain = 0
KMD1 060935Z 18008KT 09/07 A3015 RMK A01 T00920071  RH  087%=      5-min Rain = 0
KMD1 060936Z 19005KT 09/07 A3015 RMK A01 T00920071  RH  087%=      5-min Rain = 0
KMD1 060937Z 20007KT 09/07 A3015 RMK A01 T00920071  RH  087%=      5-min Rain = 0
KMD1 060938Z 18008KT 09/07 A3015 RMK A01 T00920071  RH  087%=      5-min Rain = 0
KMD1 060939Z 20006KT 09/07 A3015 RMK A01 T00920071  RH  087%=      5-min Rain = 0
KMD1 060940Z 19008KT 09/07 A3015 RMK A01 T00920071  RH  087%=      5-min Rain = 0
KMD1 060941Z 19008KT 09/07 A3015 RMK A01 T00930072  RH  087%=      5-min Rain = 0
KMD1 060942Z 19008KT 09/07 A3015 RMK A01 T00920072  RH  087%=      5-min Rain = 0
KMD1 060943Z 18010KT 09/07 A3015 RMK A01 T00930072  RH  087%=      5-min Rain = 0
KMD1 060944Z 18010KT 09/07 A3015 RMK A01 T00930072  RH  087%=      5-min Rain = 0
KMD1 060945Z 20009KT 09/07 A3015 RMK A01 T00930072  RH  087%=      5-min Rain = 0
KMD1 060946Z 19009KT 09/07 A3015 RMK A01 T00930073  RH  087%=      5-min Rain = 0
KMD1 060947Z 18010KT 09/07 A3015 RMK A01 T00930073  RH  087%=      5-min Rain = 0
KMD1 060948Z 19009G14KT 09/07 A3015 RMK A01 T00930073  RH  087%=      5-min Rain = 0
KMD1 060949Z 19012KT 09/07 A3015 RMK A01 T00930073  RH  087%=      5-min Rain = 0
KMD1 060950Z 19012KT 09/07 A3015 RMK A01 T00930073  RH  087%=      5-min Rain = 0
KMD1 060951Z 19011KT 09/07 A3015 RMK A01 T00930073  RH  087%=      5-min Rain = 0
KMD1 060952Z 19009KT 09/07 A3015 RMK A01 T00930073  RH  087%=      5-min Rain = 0
KMD1 060953Z 19011KT 09/07 A3015 RMK A01 T00930073  RH  087%=      5-min Rain = 0
KMD1 060954Z 19008KT 09/07 A3015 RMK A01 T00930073  RH  087%=      5-min Rain = 0
KMD1 060955Z 19006KT 09/07 A3015 RMK A01 T00930073  RH  087%=      5-min Rain = 0
KMD1 060956Z 18008KT 09/07 A3014 RMK A01 T00930073  RH  087%=      5-min Rain = 0
KMD1 060957Z 19006KT 09/07 A3014 RMK A01 T00930073  RH  087%=      5-min Rain = 0
KMD1 060958Z 20007KT 09/07 A3014 RMK A01 T00930073  RH  087%=      5-min Rain = 0
KMD1 060959Z 19009KT 09/07 A3014 RMK A01 T00930073  RH  088%=      5-min Rain = 0
KMD1 061000Z 20007KT 09/07 A3015 RMK A01 T00930074  RH  088%=      5-min Rain = 0
KMD1 061001Z 20006KT 09/07 A3015 RMK A01 T00930074  RH  088%=      5-min Rain = 0
KMD1 061002Z 20005KT 09/07 A3015 RMK A01 T00930073  RH  088%=      5-min Rain = 0
KMD1 061003Z 20007KT 09/07 A3015 RMK A01 T00930073  RH  088%=      5-min Rain = 0
KMD1 061004Z 20006KT 09/07 A3015 RMK A01 T00930073  RH  088%=      5-min Rain = 0
KMD1 061005Z 19005KT 09/07 A3015 RMK A01 T00930073  RH  088%=      5-min Rain = 0
KMD1 061006Z 21007KT 09/07 A3015 RMK A01 T00930074  RH  088%=      5-min Rain = 0
KMD1 061007Z 20008KT 09/07 A3015 RMK A01 T00930074  RH  088%=      5-min Rain = 0
KMD1 061008Z 19007KT 09/07 A3015 RMK A01 T00930074  RH  088%=      5-min Rain = 0
KMD1 061009Z 19007KT 09/07 A3015 RMK A01 T00930074  RH  088%=      5-min Rain = 0
KMD1 061010Z 21007KT 09/07 A3015 RMK A01 T00930074  RH  088%=      5-min Rain = 0
KMD1 061011Z 19006KT 09/07 A3015 RMK A01 T00930074  RH  088%=      5-min Rain = 0
KMD1 061012Z 20007KT 09/07 A3015 RMK A01 T00930074  RH  088%=      5-min Rain = 0
KMD1 061013Z 21006KT 09/07 A3015 RMK A01 T00930074  RH  088%=      5-min Rain = 0
KMD1 061014Z 19007KT 09/07 A3015 RMK A01 T00930074  RH  088%=      5-min Rain = 0
KMD1 061015Z 20005KT 09/07 A3015 RMK A01 T00930074  RH  088%=      5-min Rain = 0
KMD1 061016Z 19007KT 09/07 A3015 RMK A01 T00930074  RH  088%=      5-min Rain = 0
KMD1 061017Z 19006KT 09/07 A3015 RMK A01 T00930074  RH  088%=      5-min Rain = 0
KMD1 061018Z 19006KT 09/07 A3014 RMK A01 T00930074  RH  088%=      5-min Rain = 0
KMD1 061019Z 20009KT 09/08 A3014 RMK A01 T00930075  RH  088%=      5-min Rain = 0
KMD1 061020Z 19007KT 09/08 A3014 RMK A01 T00930075  RH  088%=      5-min Rain = 0
KMD1 061021Z 20007KT 09/08 A3014 RMK A01 T00930075  RH  088%=      5-min Rain = 0
KMD1 061022Z 20006KT 09/08 A3014 RMK A01 T00930075  RH  088%=      5-min Rain = 0
KMD1 061023Z 18008KT 09/08 A3014 RMK A01 T00930075  RH  089%=      5-min Rain = 0
KMD1 061024Z 19007KT 09/08 A3014 RMK A01 T00930076  RH  089%=      5-min Rain = 0
KMD1 061025Z 19006KT 09/08 A3014 RMK A01 T00930075  RH  089%=      5-min Rain = 0
KMD1 061026Z 20005KT 09/08 A3014 RMK A01 T00930075  RH  089%=      5-min Rain = 0
KMD1 061027Z 20007KT 09/08 A3014 RMK A01 T00930075  RH  089%=      5-min Rain = 0
KMD1 061028Z 20007KT 09/08 A3014 RMK A01 T00930076  RH  089%=      5-min Rain = 0
KMD1 061029Z 19009KT 09/08 A3014 RMK A01 T00930076  RH  089%=      5-min Rain = 0
KMD1 061030Z 19007KT 09/08 A3014 RMK A01 T00930076  RH  089%=      5-min Rain = 0
KMD1 061031Z 19007KT 09/08 A3014 RMK A01 T00930076  RH  089%=      5-min Rain = 0
KMD1 061032Z 19007KT 09/08 A3014 RMK A01 T00930076  RH  089%=      5-min Rain = 0
KMD1 061033Z 19008KT 09/08 A3014 RMK A01 T00930076  RH  089%=      5-min Rain = 0
KMD1 061034Z 19008KT 09/08 A3014 RMK A01 T00930077  RH  089%=      5-min Rain = 0
KMD1 061035Z 19010KT 09/08 A3014 RMK A01 T00930077  RH  089%=      5-min Rain = 0
KMD1 061036Z 19008KT 09/08 A3014 RMK A01 T00940077  RH  089%=      5-min Rain = 0
KMD1 061037Z 19007KT 09/08 A3014 RMK A01 T00930077  RH  089%=      5-min Rain = 0
KMD1 061038Z 19008KT 09/08 A3013 RMK A01 T00940077  RH  089%=      5-min Rain = 0
KMD1 061039Z 20010KT 09/08 A3013 RMK A01 T00940077  RH  089%=      5-min Rain = 0
KMD1 061040Z 19009KT 09/08 A3013 RMK A01 T00940078  RH  090%=      5-min Rain = 0
KMD1 061041Z 19011KT 09/08 A3013 RMK A01 T00940078  RH  090%=      5-min Rain = 0
KMD1 061042Z 19012KT 09/08 A3013 RMK A01 T00940078  RH  090%=      5-min Rain = 0
KMD1 061043Z 20010KT 09/08 A3013 RMK A01 T00940078  RH  090%=      5-min Rain = 0
KMD1 061044Z 20009G14KT 09/08 A3014 RMK A01 T00940078  RH  090%=      5-min Rain = 0
KMD1 061045Z 20011KT 09/08 A3014 RMK A01 T00940078  RH  090%=      5-min Rain = 0
KMD1 061046Z 20009KT 09/08 A3014 RMK A01 T00940078  RH  090%=      5-min Rain = 0
KMD1 061047Z 20010KT 09/08 A3014 RMK A01 T00940078  RH  090%=      5-min Rain = 0
KMD1 061048Z 20009KT 09/08 A3014 RMK A01 T00940078  RH  090%=      5-min Rain = 0
KMD1 061049Z 19010KT 09/08 A3014 RMK A01 T00940078  RH  090%=      5-min Rain = 0
KMD1 061050Z 20009KT 09/08 A3014 RMK A01 T00940078  RH  090%=      5-min Rain = 0
KMD1 061051Z 20008KT 10/08 A3014 RMK A01 T00950079  RH  090%=      5-min Rain = 0
KMD1 061052Z 19006KT 09/08 A3014 RMK A01 T00940078  RH  090%=      5-min Rain = 0
KMD1 061053Z 20007KT 09/08 A3014 RMK A01 T00940078  RH  090%=      5-min Rain = 0
KMD1 061054Z 20007KT 09/08 A3014 RMK A01 T00940078  RH  090%=      5-min Rain = 0
KMD1 061055Z 20006KT 09/08 A3014 RMK A01 T00940079  RH  090%=      5-min Rain = 0
KMD1 061056Z 20005KT 09/08 A3014 RMK A01 T00940079  RH  090%=      5-min Rain = 0
KMD1 061057Z 20006KT 09/08 A3014 RMK A01 T00940078  RH  090%=      5-min Rain = 0
KMD1 061058Z 19007KT 09/08 A3014 RMK A01 T00940079  RH  090%=      5-min Rain = 0
KMD1 061059Z 20007KT 09/08 A3014 RMK A01 T00940079  RH  090%=      5-min Rain = 0
KMD1 061100Z 20008KT 09/08 A3014 RMK A01 T00940079  RH  090%=      5-min Rain = 0
KMD1 061101Z 20007KT 09/08 A3014 RMK A01 T00940079  RH  090%=      5-min Rain = 0
KMD1 061102Z 20008KT 10/08 A3014 RMK A01 T00950079  RH  090%=      5-min Rain = 0
KMD1 061103Z 20007KT 09/08 A3014 RMK A01 T00940079  RH  090%=      5-min Rain = 0
KMD1 061104Z 19006KT 09/08 A3014 RMK A01 T00940079  RH  090%=      5-min Rain = 0
KMD1 061105Z 19008KT 09/08 A3014 RMK A01 T00940079  RH  090%=      5-min Rain = 0
KMD1 061106Z 20007KT 09/08 A3014 RMK A01 T00940080  RH  091%=      5-min Rain = 0
KMD1 061107Z 19006KT 09/08 A3014 RMK A01 T00940080  RH  091%=      5-min Rain = 0
KMD1 061108Z 20005KT 09/08 A3014 RMK A01 T00940080  RH  091%=      5-min Rain = 0
KMD1 061109Z 19008KT 09/08 A3014 RMK A01 T00940080  RH  091%=      5-min Rain = 0
KMD1 061110Z 20009KT 09/08 A3014 RMK A01 T00940081  RH  091%=      5-min Rain = 0
KMD1 061111Z 20006KT 09/08 A3014 RMK A01 T00940081  RH  091%=      5-min Rain = 0
KMD1 061112Z 19006KT 10/08 A3014 RMK A01 T00950081  RH  091%=      5-min Rain = 0
KMD1 061113Z 19006KT 09/08 A3014 RMK A01 T00940081  RH  091%=      5-min Rain = 0
KMD1 061114Z 20009KT 09/08 A3014 RMK A01 T00940081  RH  091%=      5-min Rain = 0
KMD1 061115Z 19009KT 10/08 A3013 RMK A01 T00950082  RH  092%=      5-min Rain = 0
KMD1 061116Z 19008G14KT 10/08 A3013 RMK A01 T00950082  RH  092%=      5-min Rain = 0
KMD1 061117Z 20010KT 10/08 A3013 RMK A01 T00950082  RH  092%=      5-min Rain = 0
KMD1 061118Z 21010KT 10/08 A3013 RMK A01 T00950083  RH  092%=      5-min Rain = 0
KMD1 061119Z 19010KT 10/08 A3013 RMK A01 T00960084  RH  092%=      5-min Rain = 0
KMD1 061120Z 18009KT 10/08 A3013 RMK A01 T00950083  RH  092%=      5-min Rain = 0
KMD1 061121Z 19007KT 10/08 A3013 RMK A01 T00960084  RH  092%=      5-min Rain = 0
KMD1 061122Z 20010KT 10/08 A3013 RMK A01 T00950083  RH  092%=      5-min Rain = 0
KMD1 061123Z 20008KT 10/08 A3013 RMK A01 T00950084  RH  093%=      5-min Rain = 0
KMD1 061124Z 19009KT 10/08 A3013 RMK A01 T00950084  RH  093%=      5-min Rain = 0
KMD1 061125Z 20008KT 10/08 A3013 RMK A01 T00950084  RH  093%=      5-min Rain = 0
KMD1 061126Z 18007KT 10/08 A3014 RMK A01 T00950084  RH  093%=      5-min Rain = 0
KMD1 061127Z 20008KT 10/08 A3014 RMK A01 T00950084  RH  093%=      5-min Rain = 0
KMD1 061128Z 19009KT 10/08 A3014 RMK A01 T00950084  RH  093%=      5-min Rain = 0
KMD1 061129Z 19009KT 10/08 A3014 RMK A01 T00950084  RH  093%=      5-min Rain = 0
KMD1 061130Z 20009KT 10/09 A3014 RMK A01 T00950085  RH  093%=      5-min Rain = 0
KMD1 061131Z 20011KT 10/09 A3014 RMK A01 T00950085  RH  093%=      5-min Rain = 0
KMD1 061132Z 20008KT 10/09 A3014 RMK A01 T00950085  RH  093%=      5-min Rain = 0
KMD1 061133Z 19007KT 10/09 A3014 RMK A01 T00950085  RH  093%=      5-min Rain = 0
KMD1 061134Z 20008KT 10/09 A3014 RMK A01 T00950085  RH  094%=      5-min Rain = 0
KMD1 061135Z 19007KT 10/09 A3014 RMK A01 T00950085  RH  094%=      5-min Rain = 0
KMD1 061136Z 20007KT 10/09 A3014 RMK A01 T00950085  RH  094%=      5-min Rain = 0
KMD1 061137Z 20009KT 10/09 A3014 RMK A01 T00950086  RH  094%=      5-min Rain = 0
KMD1 061138Z 20010KT 10/09 A3014 RMK A01 T00950086  RH  094%=      5-min Rain = 0
KMD1 061139Z 21010KT 10/09 A3014 RMK A01 T00950086  RH  094%=      5-min Rain = 0
KMD1 061140Z 20007KT 10/09 A3014 RMK A01 T00950086  RH  094%=      5-min Rain = 0
KMD1 061141Z 19008KT 10/09 A3014 RMK A01 T00950086  RH  094%=      5-min Rain = 0
KMD1 061142Z 19009KT 10/09 A3014 RMK A01 T00950087  RH  094%=      5-min Rain = 0
KMD1 061143Z 19009KT 10/09 A3014 RMK A01 T00950087  RH  094%=      5-min Rain = 0
KMD1 061144Z 19006KT 10/09 A3014 RMK A01 T00950087  RH  094%=      5-min Rain = 0
KMD1 061145Z 20006KT 10/09 A3014 RMK A01 T00950087  RH  094%=      5-min Rain = 0
KMD1 061146Z 18007KT 10/09 A3014 RMK A01 T00950087  RH  095%=      5-min Rain = 0
KMD1 061147Z 19006KT 10/09 A3014 RMK A01 T00950087  RH  095%=      5-min Rain = 0
KMD1 061148Z 19006KT 10/09 A3014 RMK A01 T00950087  RH  095%=      5-min Rain = 0
KMD1 061149Z 19005KT 10/09 A3014 RMK A01 T00950087  RH  095%=      5-min Rain = 0
KMD1 061150Z 19007KT 10/09 A3014 RMK A01 T00950087  RH  095%=      5-min Rain = 0
KMD1 061151Z 19007KT 10/09 A3014 RMK A01 T00950088  RH  095%=      5-min Rain = 0
KMD1 061152Z 19007KT 10/09 A3014 RMK A01 T00950088  RH  095%=      5-min Rain = 0
KMD1 061153Z 18007KT 10/09 A3014 RMK A01 T00960088  RH  095%=      5-min Rain = 0
KMD1 061154Z 19006KT 10/09 A3014 RMK A01 T00960088  RH  095%=      5-min Rain = 0
KMD1 061155Z 19006KT 10/09 A3014 RMK A01 T00960088  RH  095%=      5-min Rain = 0
KMD1 061156Z 19008KT 10/09 A3014 RMK A01 T00960088  RH  095%=      5-min Rain = 0
KMD1 061157Z 20007KT 10/09 A3014 RMK A01 T00960089  RH  095%=      5-min Rain = 0
KMD1 061158Z 20008KT 10/09 A3014 RMK A01 T00960089  RH  095%=      5-min Rain = 0
KMD1 061159Z 20005KT 10/09 A3014 RMK A01 T00960089  RH  095%=      5-min Rain = 0
KMD1 061200Z 19009KT 10/09 A3014 RMK A01 T00960089  RH  095%=      5-min Rain = 0
KMD1 061201Z 20008KT 10/09 A3014 RMK A01 T00960089  RH  095%=      5-min Rain = 0
KMD1 061202Z 20007KT 10/09 A3014 RMK A01 T00960089  RH  095%=      5-min Rain = 0
KMD1 061203Z 20007KT 10/09 A3014 RMK A01 T00960089  RH  095%=      5-min Rain = 0
KMD1 061204Z 19007KT 10/09 A3014 RMK A01 T00960089  RH  096%=      5-min Rain = 0
KMD1 061205Z 20005KT 10/09 A3014 RMK A01 T00960089  RH  096%=      5-min Rain = 0
KMD1 061206Z 19007KT 10/09 A3015 RMK A01 T00960089  RH  096%=      5-min Rain = 0
KMD1 061207Z 19008KT 10/09 A3015 RMK A01 T00960090  RH  096%=      5-min Rain = 0
KMD1 061208Z 20007KT 10/09 A3015 RMK A01 T00970090  RH  096%=      5-min Rain = 0
KMD1 061209Z 20006KT 10/09 A3015 RMK A01 T00970090  RH  096%=      5-min Rain = 0
KMD1 061210Z 19007KT 10/09 A3015 RMK A01 T00970090  RH  096%=      5-min Rain = 0
KMD1 061211Z 19006KT 10/09 A3015 RMK A01 T00970090  RH  096%=      5-min Rain = 0
KMD1 061212Z 19006KT 10/09 A3015 RMK A01 T00970090  RH  096%=      5-min Rain = 0
KMD1 061213Z 19005KT 10/09 A3015 RMK A01 T00970090  RH  096%=      5-min Rain = 0
KMD1 061214Z 18005KT 10/09 A3015 RMK A01 T00970090  RH  096%=      5-min Rain = 0
KMD1 061215Z 19004KT 10/09 A3015 RMK A01 T00970090  RH  096%=      5-min Rain = 0
KMD1 061216Z 18004KT 10/09 A3015 RMK A01 T00970090  RH  096%=      5-min Rain = 0
KMD1 061217Z 20005KT 10/09 A3015 RMK A01 T00960090  RH  096%=      5-min Rain = 0
KMD1 061218Z 21007KT 10/09 A3015 RMK A01 T00970091  RH  096%=      5-min Rain = 0
KMD1 061219Z 19006KT 10/09 A3015 RMK A01 T00970091  RH  096%=      5-min Rain = 0
KMD1 061220Z 17007KT 10/09 A3015 RMK A01 T00970091  RH  096%=      5-min Rain = 0
KMD1 061221Z 19005KT 10/09 A3015 RMK A01 T00970091  RH  096%=      5-min Rain = 0
KMD1 061222Z 19005KT 10/09 A3015 RMK A01 T00970091  RH  096%=      5-min Rain = 0
KMD1 061223Z 21006KT 10/09 A3015 RMK A01 T00970091  RH  096%=      5-min Rain = 0
KMD1 061224Z 19006KT 10/09 A3015 RMK A01 T00970091  RH  096%=      5-min Rain = 0
KMD1 061225Z 19006KT 10/09 A3015 RMK A01 T00970091  RH  096%=      5-min Rain = 0
KMD1 061226Z 18006KT 10/09 A3015 RMK A01 T00970091  RH  096%=      5-min Rain = 0
KMD1 061227Z 18005KT 10/09 A3015 RMK A01 T00970091  RH  096%=      5-min Rain = 0
KMD1 061228Z 19006KT 10/09 A3015 RMK A01 T00970091  RH  096%=      5-min Rain = 0
KMD1 061229Z 20005KT 10/09 A3015 RMK A01 T00970092  RH  096%=      5-min Rain = 0
KMD1 061230Z 19005KT 10/09 A3015 RMK A01 T00980092  RH  096%=      5-min Rain = 0
KMD1 061231Z 18004KT 10/09 A3015 RMK A01 T00980092  RH  096%=      5-min Rain = 0
KMD1 061232Z 18005KT 10/09 A3015 RMK A01 T00980092  RH  096%=      5-min Rain = 0
KMD1 061233Z 20006KT 10/09 A3015 RMK A01 T00970092  RH  096%=      5-min Rain = 0
KMD1 061234Z 19006KT 10/09 A3016 RMK A01 T00980092  RH  096%=      5-min Rain = 0
KMD1 061235Z 20005KT 10/09 A3016 RMK A01 T00980092  RH  096%=      5-min Rain = 0
KMD1 061236Z 19005KT 10/09 A3016 RMK A01 T00980093  RH  096%=      5-min Rain = 0
KMD1 061237Z 19005KT 10/09 A3016 RMK A01 T00980093  RH  096%=      5-min Rain = 0
KMD1 061238Z 20006KT 10/09 A3016 RMK A01 T00980093  RH  096%=      5-min Rain = 0
KMD1 061239Z 20006KT 10/09 A3016 RMK A01 T00980093  RH  097%=      5-min Rain = 0
KMD1 061240Z 20004KT 10/09 A3016 RMK A01 T00980093  RH  097%=      5-min Rain = 0
KMD1 061241Z 20004KT 10/09 A3016 RMK A01 T00980093  RH  097%=      5-min Rain = 0
KMD1 061242Z 20004KT 10/09 A3016 RMK A01 T00980093  RH  097%=      5-min Rain = 0
KMD1 061243Z 20003KT 10/09 A3016 RMK A01 T00980093  RH  097%=      5-min Rain = 0
KMD1 061244Z 20004KT 10/09 A3016 RMK A01 T00980093  RH  097%=      5-min Rain = 0
KMD1 061245Z 20005KT 10/09 A3016 RMK A01 T00980093  RH  097%=      5-min Rain = 0
KMD1 061246Z 20003KT 10/09 A3016 RMK A01 T00980093  RH  097%=      5-min Rain = 0
KMD1 061247Z 19004KT 10/09 A3016 RMK A01 T00980094  RH  097%=      5-min Rain = 0
KMD1 061248Z 20004KT 10/09 A3016 RMK A01 T00980094  RH  097%=      5-min Rain = 0
KMD1 061249Z 20005KT 10/09 A3016 RMK A01 T00980094  RH  097%=      5-min Rain = 0
KMD1 061250Z 19006KT 10/09 A3016 RMK A01 T00980094  RH  097%=      5-min Rain = 0
KMD1 061251Z 19005KT 10/09 A3016 RMK A01 T00980094  RH  097%=      5-min Rain = 0
KMD1 061252Z 19004KT 10/09 A3016 RMK A01 T00980094  RH  097%=      5-min Rain = 0
KMD1 061253Z 20004KT 10/09 A3016 RMK A01 T00980094  RH  097%=      5-min Rain = 0
KMD1 061254Z 19004KT 10/09 A3016 RMK A01 T00980094  RH  097%=      5-min Rain = 0
KMD1 061255Z 19003KT 10/09 A3016 RMK A01 T00980094  RH  098%=      5-min Rain = 0
KMD1 061256Z 20004KT 10/10 A3016 RMK A01 T00980095  RH  098%=      5-min Rain = 0
KMD1 061257Z 19005KT 10/10 A3016 RMK A01 T00980095  RH  098%=      5-min Rain = 0
KMD1 061258Z 19004KT 10/10 A3016 RMK A01 T00980095  RH  098%=      5-min Rain = 0
KMD1 061259Z 19004KT 10/10 A3016 RMK A01 T00980095  RH  098%=      5-min Rain = 0
KMD1 061300Z 19005KT 10/10 A3016 RMK A01 T00980095  RH  098%=      5-min Rain = 0
KMD1 061301Z 18006KT 10/10 A3016 RMK A01 T00980095  RH  098%=      5-min Rain = 0
KMD1 061302Z 18005KT 10/10 A3016 RMK A01 T00980095  RH  098%=      5-min Rain = 0
KMD1 061303Z 19004KT 10/10 A3016 RMK A01 T00980096  RH  098%=      5-min Rain = 0
KMD1 061304Z 19006KT 10/10 A3016 RMK A01 T00980096  RH  098%=      5-min Rain = 0
KMD1 061305Z 19004KT 10/10 A3016 RMK A01 T00980096  RH  098%=      5-min Rain = 0
KMD1 061306Z 19004KT 10/10 A3016 RMK A01 T00980096  RH  098%=      5-min Rain = 0
KMD1 061307Z 19005KT 10/10 A3016 RMK A01 T00990096  RH  098%=      5-min Rain = 0
KMD1 061308Z 19004KT 10/10 A3016 RMK A01 T00980096  RH  098%=      5-min Rain = 0
KMD1 061309Z 18004KT 10/10 A3016 RMK A01 T00980096  RH  098%=      5-min Rain = 0
KMD1 061310Z 19004KT 10/10 A3016 RMK A01 T00990096  RH  098%=      5-min Rain = 0
KMD1 061311Z 19004KT 10/10 A3016 RMK A01 T00980096  RH  098%=      5-min Rain = 0
KMD1 061312Z 19004KT 10/10 A3016 RMK A01 T00990096  RH  098%=      5-min Rain = 0
KMD1 061313Z 19004KT 10/10 A3016 RMK A01 T00980096  RH  098%=      5-min Rain = 0
KMD1 061314Z 19005KT 10/10 A3016 RMK A01 T00990096  RH  099%=      5-min Rain = 0
KMD1 061315Z 19004KT 10/10 A3016 RMK A01 T00980096  RH  099%=      5-min Rain = 0
KMD1 061316Z 19004KT 10/10 A3016 RMK A01 T00980096  RH  099%=      5-min Rain = 0
KMD1 061317Z 19004KT 10/10 A3016 RMK A01 T00990097  RH  099%=      5-min Rain = 0
KMD1 061318Z 20003KT 10/10 A3016 RMK A01 T00990097  RH  099%=      5-min Rain = 0
KMD1 061319Z 19004KT 10/10 A3016 RMK A01 T00990097  RH  099%=      5-min Rain = 0
KMD1 061320Z 20003KT 10/10 A3016 RMK A01 T00990097  RH  099%=      5-min Rain = 0
KMD1 061321Z 20003KT 10/10 A3016 RMK A01 T00990097  RH  099%=      5-min Rain = 0
KMD1 061322Z 18003KT 10/10 A3016 RMK A01 T00990097  RH  099%=      5-min Rain = 0
KMD1 061323Z 19004KT 10/10 A3016 RMK A01 T00990097  RH  099%=      5-min Rain = 0
KMD1 061324Z 19004KT 10/10 A3016 RMK A01 T00990097  RH  099%=      5-min Rain = 0
KMD1 061325Z 19003KT 10/10 A3016 RMK A01 T00990097  RH  099%=      5-min Rain = 0
KMD1 061326Z 18002KT 10/10 A3016 RMK A01 T00990097  RH  099%=      5-min Rain = 0
KMD1 061327Z 18001KT 10/10 A3016 RMK A01 T00990098  RH  099%=      5-min Rain = 0
KMD1 061328Z 19002KT 10/10 A3016 RMK A01 T00990098  RH  099%=      5-min Rain = 0
KMD1 061329Z 18003KT 10/10 A3016 RMK A01 T00990097  RH  099%=      5-min Rain = 0
KMD1 061330Z 17003KT 10/10 A3016 RMK A01 T00990098  RH  099%=      5-min Rain = 0
KMD1 061331Z 19004KT 10/10 A3016 RMK A01 T00990098  RH  099%=      5-min Rain = 0
KMD1 061332Z 18003KT 10/10 A3016 RMK A01 T00990098  RH  099%=      5-min Rain = 0
KMD1 061333Z 18004KT 10/10 A3016 RMK A01 T00990098  RH  099%=      5-min Rain = 0
KMD1 061334Z 18003KT 10/10 A3016 RMK A01 T00990099  RH  099%=      5-min Rain = 0
KMD1 061335Z 19003KT 10/10 A3016 RMK A01 T00990098  RH  099%=      5-min Rain = 0
KMD1 061336Z 18004KT 10/10 A3016 RMK A01 T00990099  RH  099%=      5-min Rain = 0
KMD1 061337Z 18003KT 10/10 A3016 RMK A01 T01000099  RH  099%=      5-min Rain = 0
KMD1 061338Z 18004KT 10/10 A3016 RMK A01 T00990099  RH  100%=      5-min Rain = 0
KMD1 061339Z 18005KT 10/10 A3016 RMK A01 T01000099  RH  100%=      5-min Rain = 0
KMD1 061340Z 17005KT 10/10 A3016 RMK A01 T00990099  RH  100%=      5-min Rain = 0
KMD1 061341Z 17005KT 10/10 A3016 RMK A01 T00990099  RH  100%=      5-min Rain = 0
KMD1 061342Z 17003KT 10/10 A3016 RMK A01 T00990099  RH  100%=      5-min Rain = 0
KMD1 061343Z 17004KT 10/10 A3016 RMK A01 T00990099  RH  100%=      5-min Rain = 0
KMD1 061344Z 18004KT 10/10 A3016 RMK A01 T00990099  RH  100%=      5-min Rain = 0
KMD1 061345Z 18003KT 10/10 A3016 RMK A01 T00990099  RH  100%=      5-min Rain = 0
KMD1 061346Z 19003KT 10/10 A3016 RMK A01 T01000099  RH  100%=      5-min Rain = 0
KMD1 061347Z 17003KT 10/10 A3016 RMK A01 T01000100  RH  100%=      5-min Rain = 0
KMD1 061348Z 18004KT 10/10 A3016 RMK A01 T01000100  RH  100%=      5-min Rain = 0
KMD1 061349Z 19004KT 10/10 A3016 RMK A01 T01000100  RH  100%=      5-min Rain = 0
KMD1 061350Z 18003KT 10/10 A3016 RMK A01 T01000100  RH  100%=      5-min Rain = 0
KMD1 061351Z 17003KT 10/10 A3016 RMK A01 T01000100  RH  100%=      5-min Rain = 0
KMD1 061352Z 18003KT 10/10 A3016 RMK A01 T01000100  RH  100%=      5-min Rain = 0
KMD1 061353Z 19003KT 10/10 A3016 RMK A01 T01000100  RH  100%=      5-min Rain = 0
KMD1 061354Z 20004KT 10/10 A3016 RMK A01 T01000100  RH  100%=      5-min Rain = 0
KMD1 061355Z 19005KT 10/10 A3016 RMK A01 T01000100  RH  100%=      5-min Rain = 0
KMD1 061356Z 19005KT 10/10 A3016 RMK A01 T01010101  RH  100%=      5-min Rain = 0
KMD1 061357Z 18005KT 10/10 A3016 RMK A01 T01010101  RH  100%=      5-min Rain = 0
KMD1 061358Z 19005KT 10/10 A3016 RMK A01 T01010101  RH  100%=      5-min Rain = 0
KMD1 061359Z 18005KT 10/10 A3016 RMK A01 T01010101  RH  100%=      5-min Rain = 0
KMD1 061400Z 19003KT 10/10 A3016 RMK A01 T01010101  RH  100%=      5-min Rain = 0
KMD1 061401Z 18005KT 10/10 A3016 RMK A01 T01010102  RH  100%=      5-min Rain = 0
KMD1 061402Z 18004KT 10/10 A3016 RMK A01 T01010101  RH  100%=      5-min Rain = 0
KMD1 061403Z 18005KT 10/10 A3016 RMK A01 T01010101  RH  100%=      5-min Rain = 0
KMD1 061404Z 19004KT 10/10 A3016 RMK A01 T01010101  RH  100%=      5-min Rain = 0
KMD1 061405Z 18003KT 10/10 A3016 RMK A01 T01020102  RH  100%=      5-min Rain = 0
KMD1 061406Z 20005KT 10/10 A3016 RMK A01 T01020102  RH  100%=      5-min Rain = 0
KMD1 061407Z 19005KT 10/10 A3016 RMK A01 T01020102  RH  100%=      5-min Rain = 0
KMD1 061408Z 20004KT 10/10 A3016 RMK A01 T01020102  RH  100%=      5-min Rain = 0
KMD1 061409Z 20004KT 10/10 A3016 RMK A01 T01020102  RH  100%=      5-min Rain = 0
KMD1 061410Z 19004KT 10/10 A3016 RMK A01 T01020102  RH  100%=      5-min Rain = 0
KMD1 061411Z 18003KT 10/10 A3016 RMK A01 T01020102  RH  100%=      5-min Rain = 0
KMD1 061412Z 19003KT 10/10 A3017 RMK A01 T01020102  RH  100%=      5-min Rain = 0
KMD1 061413Z 19004KT 10/10 A3017 RMK A01 T01020102  RH  100%=      5-min Rain = 0
KMD1 061414Z 19004KT 10/10 A3017 RMK A01 T01020102  RH  100%=      5-min Rain = 0
KMD1 061415Z 18004KT 10/10 A3016 RMK A01 T01020102  RH  100%=      5-min Rain = 0
KMD1 061416Z 19004KT 10/10 A3016 RMK A01 T01020102  RH  100%=      5-min Rain = 0
KMD1 061417Z 19004KT 10/10 A3016 RMK A01 T01030103  RH  100%=      5-min Rain = 0
KMD1 061418Z 18002KT 10/10 A3016 RMK A01 T01030103  RH  100%=      5-min Rain = 0
KMD1 061419Z 18003KT 10/10 A3016 RMK A01 T01030103  RH  100%=      5-min Rain = 0
KMD1 061420Z 18003KT 10/10 A3016 RMK A01 T01030103  RH  100%=      5-min Rain = 0
KMD1 061421Z 18003KT 10/10 A3016 RMK A01 T01030103  RH  100%=      5-min Rain = 0
KMD1 061422Z 17003KT 10/10 A3016 RMK A01 T01030103  RH  100%=      5-min Rain = 0
KMD1 061423Z 18003KT 10/10 A3016 RMK A01 T01030103  RH  100%=      5-min Rain = 0
KMD1 061424Z 18002KT 10/10 A3016 RMK A01 T01030103  RH  100%=      5-min Rain = 0
KMD1 061425Z 18004KT 10/10 A3016 RMK A01 T01030103  RH  100%=      5-min Rain = 0
KMD1 061426Z 17003KT 10/10 A3016 RMK A01 T01030103  RH  100%=      5-min Rain = 0
KMD1 061427Z 17004KT 10/10 A3016 RMK A01 T01030103  RH  100%=      5-min Rain = 0
KMD1 061428Z 17005KT 10/10 A3016 RMK A01 T01040104  RH  100%=      5-min Rain = 0
KMD1 061429Z 19004KT 10/10 A3016 RMK A01 T01040104  RH  100%=      5-min Rain = 0
KMD1 061430Z 18004KT 10/10 A3016 RMK A01 T01030103  RH  100%=      5-min Rain = 0
KMD1 061431Z 18004KT 10/10 A3017 RMK A01 T01030103  RH  100%=      5-min Rain = 0
KMD1 061432Z 19003KT 10/10 A3017 RMK A01 T01040104  RH  100%=      5-min Rain = 0
KMD1 061433Z 18003KT 10/10 A3017 RMK A01 T01040104  RH  100%=      5-min Rain = 0
KMD1 061434Z 18003KT 10/10 A3017 RMK A01 T01040104  RH  100%=      5-min Rain = 0
KMD1 061435Z 18003KT 10/10 A3017 RMK A01 T01040104  RH  100%=      5-min Rain = 0
KMD1 061436Z 18003KT 11/11 A3017 RMK A01 T01050105  RH  100%=      5-min Rain = 0
KMD1 061437Z 19003KT 10/10 A3017 RMK A01 T01040104  RH  100%=      5-min Rain = 0
KMD1 061438Z 18004KT 10/11 A3017 RMK A01 T01040105  RH  100%=      5-min Rain = 0
KMD1 061439Z 19003KT 10/10 A3017 RMK A01 T01040104  RH  100%=      5-min Rain = 0
KMD1 061440Z 19003KT 11/11 A3017 RMK A01 T01050105  RH  100%=      5-min Rain = 0
KMD1 061441Z 17003KT 11/11 A3017 RMK A01 T01050105  RH  100%=      5-min Rain = 0
KMD1 061442Z 18003KT 11/11 A3017 RMK A01 T01050105  RH  100%=      5-min Rain = 0
KMD1 061443Z 17003KT 11/11 A3017 RMK A01 T01050105  RH  100%=      5-min Rain = 0
KMD1 061444Z 18003KT 11/11 A3017 RMK A01 T01050105  RH  100%=      5-min Rain = 0
KMD1 061445Z 18004KT 11/11 A3017 RMK A01 T01050106  RH  100%=      5-min Rain = 0
KMD1 061446Z 19004KT 11/11 A3017 RMK A01 T01060106  RH  100%=      5-min Rain = 0
KMD1 061447Z 18004KT 11/11 A3017 RMK A01 T01060106  RH  100%=      5-min Rain = 0
KMD1 061448Z 18004KT 11/11 A3017 RMK A01 T01060106  RH  100%=      5-min Rain = 0
KMD1 061449Z 19003KT 11/11 A3017 RMK A01 T01060106  RH  100%=      5-min Rain = 0
KMD1 061450Z 18003KT 11/11 A3017 RMK A01 T01060106  RH  100%=      5-min Rain = 0
KMD1 061451Z 17003KT 11/11 A3017 RMK A01 T01060106  RH  100%=      5-min Rain = 0
KMD1 061452Z 17004KT 11/11 A3017 RMK A01 T01060106  RH  100%=      5-min Rain = 0
KMD1 061453Z 18005KT 11/11 A3017 RMK A01 T01060106  RH  100%=      5-min Rain = 0
KMD1 061454Z 18004KT 11/11 A3017 RMK A01 T01060107  RH  100%=      5-min Rain = 0
KMD1 061455Z 18004KT 11/11 A3017 RMK A01 T01060106  RH  100%=      5-min Rain = 0
KMD1 061456Z 17003KT 11/11 A3017 RMK A01 T01060106  RH  100%=      5-min Rain = 0
KMD1 061457Z 17004KT 11/11 A3017 RMK A01 T01070107  RH  100%=      5-min Rain = 0
KMD1 061458Z 17004KT 11/11 A3017 RMK A01 T01070107  RH  100%=      5-min Rain = 0
KMD1 061459Z 17003KT 11/11 A3017 RMK A01 T01070107  RH  100%=      5-min Rain = 0
KMD1 061500Z 17003KT 11/11 A3017 RMK A01 T01070107  RH  100%=      5-min Rain = 0
KMD1 061501Z 17003KT 11/11 A3017 RMK A01 T01080108  RH  100%=      5-min Rain = 0
KMD1 061502Z 18003KT 11/11 A3017 RMK A01 T01080108  RH  100%=      5-min Rain = 0
KMD1 061503Z 17004KT 11/11 A3017 RMK A01 T01080108  RH  100%=      5-min Rain = 0
KMD1 061504Z 16004KT 11/11 A3017 RMK A01 T01080108  RH  100%=      5-min Rain = 0
KMD1 061505Z 17004KT 11/11 A3017 RMK A01 T01080109  RH  100%=      5-min Rain = 0
KMD1 061506Z 17004KT 11/11 A3017 RMK A01 T01090109  RH  100%=      5-min Rain = 0
KMD1 061507Z 17004KT 11/11 A3017 RMK A01 T01090109  RH  100%=      5-min Rain = 0
KMD1 061508Z 16004KT 11/11 A3017 RMK A01 T01090109  RH  100%=      5-min Rain = 0
KMD1 061509Z 17004KT 11/11 A3017 RMK A01 T01090109  RH  100%=      5-min Rain = 0
KMD1 061510Z 18004KT 11/11 A3017 RMK A01 T01100110  RH  100%=      5-min Rain = 0
KMD1 061511Z 18004KT 11/11 A3018 RMK A01 T01100110  RH  100%=      5-min Rain = 0
KMD1 061512Z 17004KT 11/11 A3018 RMK A01 T01090109  RH  100%=      5-min Rain = 0
KMD1 061513Z 17003KT 11/11 A3018 RMK A01 T01100110  RH  100%=      5-min Rain = 0
KMD1 061514Z 18005KT 11/11 A3018 RMK A01 T01100110  RH  100%=      5-min Rain = 0
KMD1 061515Z 17005KT 11/11 A3018 RMK A01 T01100110  RH  100%=      5-min Rain = 0
KMD1 061516Z 17004KT 11/11 A3017 RMK A01 T01100110  RH  100%=      5-min Rain = 0
KMD1 061517Z 17004KT 11/11 A3018 RMK A01 T01110111  RH  100%=      5-min Rain = 0
KMD1 061518Z 18003KT 11/11 A3018 RMK A01 T01110111  RH  100%=      5-min Rain = 0
KMD1 061519Z 18003KT 11/11 A3018 RMK A01 T01110111  RH  100%=      5-min Rain = 0
KMD1 061520Z 19004KT 11/11 A3018 RMK A01 T01110111  RH  100%=      5-min Rain = 0
KMD1 061521Z 17004KT 11/11 A3018 RMK A01 T01110111  RH  100%=      5-min Rain = 0
KMD1 061522Z 19004KT 11/11 A3018 RMK A01 T01110111  RH  100%=      5-min Rain = 0
KMD1 061523Z 19005KT 11/11 A3018 RMK A01 T01120112  RH  100%=      5-min Rain = 0
KMD1 061524Z 18005KT 11/11 A3018 RMK A01 T01120112  RH  100%=      5-min Rain = 0
KMD1 061525Z 18007KT 11/11 A3018 RMK A01 T01120112  RH  100%=      5-min Rain = 0
KMD1 061526Z 18005KT 11/11 A3018 RMK A01 T01120112  RH  100%=      5-min Rain = 0
KMD1 061527Z 19006KT 11/11 A3018 RMK A01 T01120113  RH  100%=      5-min Rain = 0
KMD1 061528Z 19005KT 11/11 A3018 RMK A01 T01130113  RH  100%=      5-min Rain = 0
KMD1 061529Z 19004KT 11/11 A3018 RMK A01 T01130113  RH  100%=      5-min Rain = 0
KMD1 061530Z 19004KT 11/11 A3018 RMK A01 T01130113  RH  100%=      5-min Rain = 0
KMD1 061531Z 19003KT 11/11 A3018 RMK A01 T01130113  RH  100%=      5-min Rain = 0
KMD1 061532Z 19003KT 11/11 A3018 RMK A01 T01130113  RH  100%=      5-min Rain = 0
KMD1 061533Z 19003KT 11/11 A3018 RMK A01 T01130113  RH  100%=      5-min Rain = 0
KMD1 061534Z 20003KT 11/11 A3018 RMK A01 T01140114  RH  100%=      5-min Rain = 0
KMD1 061535Z 20006KT 11/11 A3018 RMK A01 T01140114  RH  100%=      5-min Rain = 0
KMD1 061536Z 19006KT 11/11 A3018 RMK A01 T01140114  RH  100%=      5-min Rain = 0
KMD1 061537Z 19006KT 11/11 A3018 RMK A01 T01140114  RH  100%=      5-min Rain = 0
KMD1 061538Z 18005KT 11/11 A3018 RMK A01 T01140114  RH  100%=      5-min Rain = 0
KMD1 061539Z 18005KT 11/11 A3018 RMK A01 T01140114  RH  100%=      5-min Rain = 0
KMD1 061540Z 18005KT 11/11 A3018 RMK A01 T01140114  RH  100%=      5-min Rain = 0
KMD1 061541Z 19006KT 11/11 A3018 RMK A01 T01140114  RH  100%=      5-min Rain = 0
KMD1 061542Z 18005KT 11/12 A3018 RMK A01 T01140115  RH  100%=      5-min Rain = 0
KMD1 061543Z 18006KT 12/12 A3018 RMK A01 T01150115  RH  100%=      5-min Rain = 0
KMD1 061544Z 17005KT 12/12 A3018 RMK A01 T01150115  RH  100%=      5-min Rain = 0
KMD1 061545Z 17005KT 12/12 A3018 RMK A01 T01150115  RH  100%=      5-min Rain = 0
KMD1 061546Z 18004KT 12/12 A3018 RMK A01 T01150115  RH  100%=      5-min Rain = 0
KMD1 061547Z 19005KT 12/12 A3018 RMK A01 T01150115  RH  100%=      5-min Rain = 0
KMD1 061548Z 18006KT 12/12 A3019 RMK A01 T01160116  RH  100%=      5-min Rain = 0
KMD1 061549Z 18005KT 12/12 A3019 RMK A01 T01160116  RH  100%=      5-min Rain = 0
KMD1 061550Z 18005KT 12/12 A3019 RMK A01 T01150115  RH  100%=      5-min Rain = 0
KMD1 061551Z 19004KT 12/12 A3019 RMK A01 T01150115  RH  100%=      5-min Rain = 0
KMD1 061552Z 19004KT 12/12 A3019 RMK A01 T01150116  RH  100%=      5-min Rain = 0
KMD1 061553Z 20003KT 12/12 A3019 RMK A01 T01160116  RH  100%=      5-min Rain = 0
KMD1 061554Z 18004KT 12/12 A3019 RMK A01 T01160116  RH  100%=      5-min Rain = 0
KMD1 061555Z 18005KT 12/12 A3019 RMK A01 T01160116  RH  100%=      5-min Rain = 0
KMD1 061556Z 19005KT 12/12 A3019 RMK A01 T01160116  RH  100%=      5-min Rain = 0
KMD1 061557Z 19004KT 12/12 A3019 RMK A01 T01160116  RH  100%=      5-min Rain = 0
KMD1 061558Z 19004KT 12/12 A3019 RMK A01 T01160116  RH  100%=      5-min Rain = 0
KMD1 061559Z 19004KT 12/12 A3019 RMK A01 T01160116  RH  100%=      5-min Rain = 0
KMD1 061600Z 20005KT 12/12 A3019 RMK A01 T01160116  RH  100%=      5-min Rain = 0
KMD1 061601Z 20006KT 12/12 A3019 RMK A01 T01160116  RH  100%=      5-min Rain = 0
KMD1 061602Z 21005KT 12/12 A3019 RMK A01 T01160116  RH  100%=      5-min Rain = 0
KMD1 061603Z 20005KT 12/12 A3019 RMK A01 T01160116  RH  100%=      5-min Rain = 0
KMD1 061604Z 20005KT 12/12 A3019 RMK A01 T01160116  RH  100%=      5-min Rain = 0
KMD1 061605Z 20004KT 12/12 A3019 RMK A01 T01160116  RH  100%=      5-min Rain = 0
KMD1 061606Z 20004KT 12/12 A3019 RMK A01 T01160116  RH  100%=      5-min Rain = 0
KMD1 061607Z 19005KT 12/12 A3019 RMK A01 T01160116  RH  100%=      5-min Rain = 0
KMD1 061608Z 18005KT 12/12 A3019 RMK A01 T01160116  RH  100%=      5-min Rain = 0
KMD1 061609Z 19005KT 12/12 A3019 RMK A01 T01170117  RH  100%=      5-min Rain = 0
KMD1 061610Z 17005KT 12/12 A3019 RMK A01 T01160116  RH  100%=      5-min Rain = 0
KMD1 061611Z 18006KT 12/12 A3019 RMK A01 T01160116  RH  100%=      5-min Rain = 0
KMD1 061612Z 18004KT 12/12 A3019 RMK A01 T01160116  RH  100%=      5-min Rain = 0
KMD1 061613Z 18005KT 12/12 A3019 RMK A01 T01170117  RH  100%=      5-min Rain = 0
KMD1 061614Z 17005KT 12/12 A3019 RMK A01 T01170117  RH  100%=      5-min Rain = 0
KMD1 061615Z 17006KT 12/12 A3019 RMK A01 T01170117  RH  100%=      5-min Rain = 0
KMD1 061616Z 18005KT 12/12 A3019 RMK A01 T01170117  RH  100%=      5-min Rain = 0
KMD1 061617Z 19003KT 12/12 A3019 RMK A01 T01170117  RH  100%=      5-min Rain = 0
KMD1 061618Z 19004KT 12/12 A3019 RMK A01 T01170117  RH  100%=      5-min Rain = 0
KMD1 061619Z 19004KT 12/12 A3019 RMK A01 T01170117  RH  100%=      5-min Rain = 0
KMD1 061620Z 18005KT 12/12 A3019 RMK A01 T01170117  RH  100%=      5-min Rain = 0
KMD1 061621Z 17006KT 12/12 A3019 RMK A01 T01180118  RH  100%=      5-min Rain = 0
KMD1 061622Z 17007KT 12/12 A3018 RMK A01 T01180118  RH  100%=      5-min Rain = 0
KMD1 061623Z 18005KT 12/12 A3018 RMK A01 T01180118  RH  100%=      5-min Rain = 0
KMD1 061624Z 18005KT 12/12 A3018 RMK A01 T01180118  RH  100%=      5-min Rain = 0
KMD1 061625Z 16007KT 12/12 A3018 RMK A01 T01180118  RH  100%=      5-min Rain = 0
KMD1 061626Z 16005KT 12/12 A3018 RMK A01 T01190119  RH  100%=      5-min Rain = 0
KMD1 061627Z 16006KT 12/12 A3017 RMK A01 T01190119  RH  100%=      5-min Rain = 0
KMD1 061628Z 16007KT 12/12 A3018 RMK A01 T01190119  RH  100%=      5-min Rain = 0
KMD1 061629Z 16005KT 12/12 A3017 RMK A01 T01190119  RH  100%=      5-min Rain = 0
KMD1 061630Z 17007KT 12/12 A3018 RMK A01 T01190119  RH  100%=      5-min Rain = 0
KMD1 061631Z 17005KT 12/12 A3018 RMK A01 T01190119  RH  100%=      5-min Rain = 0
KMD1 061632Z 19004KT 12/12 A3018 RMK A01 T01190119  RH  100%=      5-min Rain = 0
KMD1 061633Z 19005KT 12/12 A3019 RMK A01 T01190119  RH  100%=      5-min Rain = 0
KMD1 061634Z 19006KT 12/12 A3019 RMK A01 T01190119  RH  100%=      5-min Rain = 0
KMD1 061635Z 20005KT 12/12 A3019 RMK A01 T01190119  RH  100%=      5-min Rain = 0
KMD1 061636Z 19005KT 12/12 A3019 RMK A01 T01190119  RH  100%=      5-min Rain = 0
KMD1 061637Z 19004KT 12/12 A3019 RMK A01 T01190119  RH  100%=      5-min Rain = 0
KMD1 061638Z 19006KT 12/12 A3019 RMK A01 T01190119  RH  100%=      5-min Rain = 0
KMD1 061639Z 20008KT 12/12 A3019 RMK A01 T01200120  RH  100%=      5-min Rain = 0
KMD1 061640Z 19008KT 12/12 A3019 RMK A01 T01200120  RH  100%=      5-min Rain = 0
KMD1 061641Z 19007KT 12/12 A3019 RMK A01 T01190119  RH  100%=      5-min Rain = 0
KMD1 061642Z 19006KT 12/12 A3019 RMK A01 T01200120  RH  100%=      5-min Rain = 0
KMD1 061643Z 20004KT 12/12 A3019 RMK A01 T01190119  RH  100%=      5-min Rain = 0
KMD1 061644Z 19005KT 12/12 A3019 RMK A01 T01200120  RH  100%=      5-min Rain = 0
KMD1 061645Z 20006KT 12/12 A3019 RMK A01 T01200121  RH  100%=      5-min Rain = 0
KMD1 061646Z 19006KT 12/12 A3019 RMK A01 T01210121  RH  100%=      5-min Rain = 0
KMD1 061647Z 18005KT 12/12 A3019 RMK A01 T01200120  RH  100%=      5-min Rain = 0
KMD1 061648Z 19005KT 12/12 A3019 RMK A01 T01200120  RH  100%=      5-min Rain = 0
KMD1 061649Z 20005KT 12/12 A3019 RMK A01 T01210121  RH  100%=      5-min Rain = 0
KMD1 061650Z 20005KT 12/12 A3019 RMK A01 T01210121  RH  100%=      5-min Rain = 0
KMD1 061651Z 20004KT 12/12 A302 RMK A01 T01210121  RH  100%=      5-min Rain = 0
KMD1 061652Z 19005KT 12/12 A302 RMK A01 T01210121  RH  100%=      5-min Rain = 0
KMD1 061653Z 20005KT 12/12 A302 RMK A01 T01210121  RH  100%=      5-min Rain = 0
KMD1 061654Z 19005KT 12/12 A3019 RMK A01 T01210121  RH  100%=      5-min Rain = 0
KMD1 061655Z 18006KT 12/12 A3019 RMK A01 T01210121  RH  100%=      5-min Rain = 0
KMD1 061656Z 19005KT 12/12 A3019 RMK A01 T01210121  RH  100%=      5-min Rain = 0
KMD1 061657Z 20007KT 12/12 A3019 RMK A01 T01220122  RH  100%=      5-min Rain = 0
KMD1 061658Z 19005KT 12/12 A3019 RMK A01 T01220122  RH  100%=      5-min Rain = 0.01
KMD1 061659Z 19004KT 12/12 A3019 RMK A01 T01220122  RH  100%=      5-min Rain = 0
KMD1 061700Z 18005KT 12/12 A3019 RMK A01 T01220122  RH  100%=      5-min Rain = 0
KMD1 061701Z 19005KT 12/12 A3019 RMK A01 T01220122  RH  100%=      5-min Rain = 0
KMD1 061702Z 19005KT 12/12 A3019 RMK A01 T01220122  RH  100%=      5-min Rain = 0
KMD1 061703Z 18005KT 12/12 A3019 RMK A01 T01230122  RH  100%=      5-min Rain = 0
KMD1 061704Z 19006KT 12/12 A3019 RMK A01 T01230122  RH  099%=      5-min Rain = 0
KMD1 061705Z 17006KT 12/12 A3019 RMK A01 T01230122  RH  099%=      5-min Rain = 0
KMD1 061706Z 18005KT 12/12 A3019 RMK A01 T01230123  RH  100%=      5-min Rain = 0
KMD1 061707Z 19004KT 12/12 A3019 RMK A01 T01230123  RH  100%=      5-min Rain = 0
KMD1 061708Z 19005KT 12/12 A3019 RMK A01 T01240123  RH  099%=      5-min Rain = 0
KMD1 061709Z 18005KT 12/12 A3019 RMK A01 T01240123  RH  099%=      5-min Rain = 0
KMD1 061710Z 18005KT 12/12 A3019 RMK A01 T01240123  RH  099%=      5-min Rain = 0
KMD1 061711Z 18006KT 12/12 A3019 RMK A01 T01240123  RH  099%=      5-min Rain = 0
KMD1 061712Z 18005KT 12/12 A3019 RMK A01 T01240123  RH  099%=      5-min Rain = 0
KMD1 061713Z 19004KT 12/12 A3019 RMK A01 T01240122  RH  099%=      5-min Rain = 0
KMD1 061714Z 18004KT 12/12 A3019 RMK A01 T01240123  RH  099%=      5-min Rain = 0
KMD1 061715Z 19004KT 12/12 A3019 RMK A01 T01240123  RH  099%=      5-min Rain = 0
KMD1 061716Z 19005KT 12/12 A3018 RMK A01 T01240123  RH  099%=      5-min Rain = 0
KMD1 061717Z 19005KT 12/12 A3018 RMK A01 T01240123  RH  099%=      5-min Rain = 0
KMD1 061718Z 19005KT 12/12 A3018 RMK A01 T01240123  RH  099%=      5-min Rain = 0
KMD1 061719Z 19004KT 12/12 A3018 RMK A01 T01240123  RH  099%=      5-min Rain = 0
KMD1 061720Z 17004KT 13/12 A3018 RMK A01 T01250123  RH  099%=      5-min Rain = 0
KMD1 061721Z 18006KT 13/12 A3018 RMK A01 T01250124  RH  099%=      5-min Rain = 0
KMD1 061722Z 18005KT 13/12 A3018 RMK A01 T01250123  RH  099%=      5-min Rain = 0
KMD1 061723Z 19004KT 13/12 A3018 RMK A01 T01250123  RH  099%=      5-min Rain = 0
KMD1 061724Z 19004KT 13/12 A3018 RMK A01 T01260124  RH  099%=      5-min Rain = 0
KMD1 061725Z 19004KT 13/13 A3018 RMK A01 T01270125  RH  099%=      5-min Rain = 0
KMD1 061726Z 18005KT 13/13 A3017 RMK A01 T01260125  RH  099%=      5-min Rain = 0
KMD1 061727Z 18005KT 13/13 A3017 RMK A01 T01270125  RH  099%=      5-min Rain = 0
KMD1 061728Z 18005KT 13/12 A3017 RMK A01 T01260124  RH  099%=      5-min Rain = 0
KMD1 061729Z 17004KT 13/13 A3017 RMK A01 T01270125  RH  099%=      5-min Rain = 0
KMD1 061730Z 19005KT 13/13 A3017 RMK A01 T01270125  RH  099%=      5-min Rain = 0
KMD1 061731Z 20006KT 13/13 A3017 RMK A01 T01280126  RH  099%=      5-min Rain = 0
KMD1 061732Z 20006KT 13/13 A3018 RMK A01 T01270125  RH  098%=      5-min Rain = 0
KMD1 061733Z 20005KT 13/13 A3018 RMK A01 T01280125  RH  098%=      5-min Rain = 0
KMD1 061734Z 20006KT 13/13 A3018 RMK A01 T01280125  RH  098%=      5-min Rain = 0
KMD1 061735Z 19006KT 13/12 A3017 RMK A01 T01270124  RH  098%=      5-min Rain = 0
KMD1 061736Z 19004KT 13/13 A3017 RMK A01 T01270125  RH  098%=      5-min Rain = 0
KMD1 061737Z 20004KT 13/13 A3017 RMK A01 T01280125  RH  098%=      5-min Rain = 0
KMD1 061738Z 19005KT 13/13 A3017 RMK A01 T01280125  RH  098%=      5-min Rain = 0
KMD1 061739Z 20005KT 13/13 A3017 RMK A01 T01280125  RH  098%=      5-min Rain = 0
KMD1 061740Z 19005KT 13/13 A3017 RMK A01 T01290126  RH  098%=      5-min Rain = 0
KMD1 061741Z 20005KT 13/13 A3017 RMK A01 T01290126  RH  098%=      5-min Rain = 0
KMD1 061742Z 20004KT 13/13 A3017 RMK A01 T01300127  RH  098%=      5-min Rain = 0
KMD1 061743Z 21005KT 13/13 A3017 RMK A01 T01300127  RH  098%=      5-min Rain = 0
KMD1 061744Z 21007KT 13/13 A3017 RMK A01 T01310127  RH  098%=      5-min Rain = 0
KMD1 061745Z 21007KT 13/13 A3017 RMK A01 T01310127  RH  098%=      5-min Rain = 0
KMD1 061746Z 20007KT 13/13 A3017 RMK A01 T01310127  RH  097%=      5-min Rain = 0
KMD1 061747Z 22006KT 13/13 A3017 RMK A01 T01300126  RH  097%=      5-min Rain = 0
KMD1 061748Z 21005KT 13/13 A3017 RMK A01 T01310126  RH  097%=      5-min Rain = 0
KMD1 061749Z 21006KT 13/13 A3017 RMK A01 T01310127  RH  097%=      5-min Rain = 0
KMD1 061750Z 21008KT 13/13 A3017 RMK A01 T01310127  RH  097%=      5-min Rain = 0
KMD1 061751Z 21008KT 13/13 A3017 RMK A01 T01320127  RH  097%=      5-min Rain = 0
KMD1 061752Z 21007KT 13/13 A3016 RMK A01 T01310126  RH  097%=      5-min Rain = 0
KMD1 061753Z 20008KT 13/13 A3016 RMK A01 T01320127  RH  097%=      5-min Rain = 0
KMD1 061754Z 20007KT 13/13 A3016 RMK A01 T01320126  RH  097%=      5-min Rain = 0
KMD1 061755Z 21007KT 13/13 A3016 RMK A01 T01320127  RH  097%=      5-min Rain = 0
KMD1 061756Z 21006KT 13/13 A3016 RMK A01 T01330128  RH  097%=      5-min Rain = 0
KMD1 061757Z 21008KT 13/13 A3016 RMK A01 T01330128  RH  097%=      5-min Rain = 0
KMD1 061758Z 22006KT 13/13 A3016 RMK A01 T01330128  RH  097%=      5-min Rain = 0
KMD1 061759Z 21006KT 13/13 A3016 RMK A01 T01340129  RH  097%=      5-min Rain = 0
KMD1 061800Z 21006KT 14/13 A3016 RMK A01 T01350129  RH  097%=      5-min Rain = 0
KMD1 061801Z 22008KT 13/13 A3016 RMK A01 T01340129  RH  096%=      5-min Rain = 0
KMD1 061802Z 22008KT 13/13 A3016 RMK A01 T01340128  RH  096%=      5-min Rain = 0
KMD1 061803Z 21007KT 14/13 A3016 RMK A01 T01350128  RH  096%=      5-min Rain = 0
KMD1 061804Z 20006KT 13/13 A3016 RMK A01 T01340128  RH  096%=      5-min Rain = 0
KMD1 061805Z 20006KT 14/13 A3016 RMK A01 T01350129  RH  096%=      5-min Rain = 0
KMD1 061806Z 20007KT 14/13 A3016 RMK A01 T01350130  RH  096%=      5-min Rain = 0
KMD1 061807Z 20007KT 14/13 A3016 RMK A01 T01360129  RH  096%=      5-min Rain = 0
KMD1 061808Z 20009KT 14/13 A3016 RMK A01 T01360129  RH  095%=      5-min Rain = 0
KMD1 061809Z 20008KT 14/13 A3016 RMK A01 T01360128  RH  095%=      5-min Rain = 0
KMD1 061810Z 20008KT 14/13 A3016 RMK A01 T01360128  RH  095%=      5-min Rain = 0
KMD1 061811Z 21006KT 14/13 A3016 RMK A01 T01360127  RH  095%=      5-min Rain = 0
KMD1 061812Z 21005KT 14/13 A3016 RMK A01 T01360128  RH  095%=      5-min Rain = 0
KMD1 061813Z 21006KT 14/13 A3016 RMK A01 T01370129  RH  095%=      5-min Rain = 0
KMD1 061814Z 21008KT 14/13 A3016 RMK A01 T01370129  RH  095%=      5-min Rain = 0
KMD1 061815Z 22008KT 14/13 A3016 RMK A01 T01370128  RH  094%=      5-min Rain = 0
KMD1 061816Z 21008KT 14/13 A3016 RMK A01 T01370128  RH  094%=      5-min Rain = 0
KMD1 061817Z 21007KT 14/13 A3016 RMK A01 T01370128  RH  094%=      5-min Rain = 0
KMD1 061818Z 21007KT 14/13 A3016 RMK A01 T01370128  RH  094%=      5-min Rain = 0
KMD1 061819Z 21010KT 14/13 A3016 RMK A01 T01370128  RH  094%=      5-min Rain = 0
KMD1 061820Z 22007KT 14/13 A3016 RMK A01 T01370127  RH  094%=      5-min Rain = 0
KMD1 061821Z 21008KT 14/13 A3015 RMK A01 T01370127  RH  094%=      5-min Rain = 0
KMD1 061822Z 21009KT 14/13 A3015 RMK A01 T01370127  RH  094%=      5-min Rain = 0
KMD1 061823Z 22007KT 14/13 A3015 RMK A01 T01370127  RH  094%=      5-min Rain = 0
KMD1 061824Z 21007KT 14/13 A3015 RMK A01 T01380128  RH  094%=      5-min Rain = 0
KMD1 061825Z 21006KT 14/13 A3015 RMK A01 T01380129  RH  094%=      5-min Rain = 0
KMD1 061826Z 21005KT 14/13 A3015 RMK A01 T01380128  RH  094%=      5-min Rain = 0
KMD1 061827Z 21008KT 14/13 A3015 RMK A01 T01380129  RH  094%=      5-min Rain = 0
KMD1 061828Z 21007KT 14/13 A3015 RMK A01 T01380128  RH  093%=      5-min Rain = 0
KMD1 061829Z 21008KT 14/13 A3015 RMK A01 T01380128  RH  094%=      5-min Rain = 0
KMD1 061830Z 21007KT 14/13 A3015 RMK A01 T01380128  RH  093%=      5-min Rain = 0
KMD1 061831Z 21007KT 14/13 A3015 RMK A01 T01380127  RH  093%=      5-min Rain = 0
KMD1 061832Z 21009KT 14/13 A3015 RMK A01 T01380128  RH  094%=      5-min Rain = 0
KMD1 061833Z 21008KT 14/13 A3015 RMK A01 T01380127  RH  093%=      5-min Rain = 0
KMD1 061834Z 20008G13KT 14/13 A3015 RMK A01 T01380128  RH  093%=      5-min Rain = 0
KMD1 061835Z 20009KT 14/13 A3015 RMK A01 T01380128  RH  093%=      5-min Rain = 0
KMD1 061836Z 21010KT 14/13 A3015 RMK A01 T01380128  RH  093%=      5-min Rain = 0
KMD1 061837Z 20009KT 14/13 A3015 RMK A01 T01390127  RH  093%=      5-min Rain = 0
KMD1 061838Z 20008KT 14/13 A3015 RMK A01 T01380128  RH  093%=      5-min Rain = 0
KMD1 061839Z 21007KT 14/13 A3015 RMK A01 T01380128  RH  093%=      5-min Rain = 0
KMD1 061840Z 21007KT 14/13 A3015 RMK A01 T01390128  RH  093%=      5-min Rain = 0
KMD1 061841Z 21009KT 14/13 A3015 RMK A01 T01390128  RH  093%=      5-min Rain = 0
KMD1 061842Z 22008KT 14/13 A3015 RMK A01 T01390128  RH  093%=      5-min Rain = 0
KMD1 061843Z 22008KT 14/13 A3015 RMK A01 T01390127  RH  093%=      5-min Rain = 0
KMD1 061844Z 21008KT 14/13 A3015 RMK A01 T01390128  RH  093%=      5-min Rain = 0
KMD1 061845Z 20007KT 14/13 A3015 RMK A01 T01390128  RH  093%=      5-min Rain = 0
KMD1 061846Z 19007KT 14/13 A3015 RMK A01 T01390127  RH  093%=      5-min Rain = 0
KMD1 061847Z 20008KT 14/13 A3015 RMK A01 T01390128  RH  093%=      5-min Rain = 0
KMD1 061848Z 20007KT 14/13 A3015 RMK A01 T01390127  RH  093%=      5-min Rain = 0
KMD1 061849Z 20006KT 14/13 A3015 RMK A01 T01390128  RH  093%=      5-min Rain = 0
KMD1 061850Z 20006KT 14/13 A3014 RMK A01 T01390128  RH  093%=      5-min Rain = 0
KMD1 061851Z 20006KT 14/13 A3014 RMK A01 T01390128  RH  093%=      5-min Rain = 0
KMD1 061852Z 20006KT 14/13 A3014 RMK A01 T01400129  RH  093%=      5-min Rain = 0
KMD1 061853Z 19006KT 14/13 A3014 RMK A01 T01400128  RH  093%=      5-min Rain = 0
KMD1 061854Z 21006KT 14/13 A3014 RMK A01 T01400128  RH  092%=      5-min Rain = 0
KMD1 061855Z 21007KT 14/13 A3014 RMK A01 T01400128  RH  093%=      5-min Rain = 0
KMD1 061856Z 20005KT 14/13 A3014 RMK A01 T01400128  RH  092%=      5-min Rain = 0
KMD1 061857Z 21007KT 14/13 A3014 RMK A01 T01400128  RH  093%=      5-min Rain = 0
KMD1 061858Z 21007KT 14/13 A3014 RMK A01 T01400128  RH  093%=      5-min Rain = 0
KMD1 061859Z 20007KT 14/13 A3014 RMK A01 T01400128  RH  092%=      5-min Rain = 0
KMD1 061900Z 20007KT 14/13 A3014 RMK A01 T01400128  RH  092%=      5-min Rain = 0
KMD1 061901Z 20005KT 14/13 A3014 RMK A01 T01400128  RH  092%=      5-min Rain = 0
KMD1 061902Z 21005KT 14/13 A3014 RMK A01 T01400128  RH  092%=      5-min Rain = 0
KMD1 061903Z 22005KT 14/13 A3014 RMK A01 T01400128  RH  093%=      5-min Rain = 0
KMD1 061904Z 22005KT 14/13 A3014 RMK A01 T01400128  RH  093%=      5-min Rain = 0
KMD1 061905Z 22003KT 14/13 A3014 RMK A01 T01400128  RH  093%=      5-min Rain = 0
KMD1 061906Z 22003KT 14/13 A3014 RMK A01 T01400128  RH  092%=      5-min Rain = 0
KMD1 061907Z 19004KT 14/13 A3014 RMK A01 T01400128  RH  093%=      5-min Rain = 0
KMD1 061908Z 21005KT 14/13 A3014 RMK A01 T01400128  RH  093%=      5-min Rain = 0
KMD1 061909Z 22005KT 14/13 A3015 RMK A01 T01400128  RH  093%=      5-min Rain = 0
KMD1 061910Z 21004KT 14/13 A3015 RMK A01 T01400128  RH  092%=      5-min Rain = 0
KMD1 061911Z 21003KT 14/13 A3015 RMK A01 T01390127  RH  092%=      5-min Rain = 0
KMD1 061912Z 21002KT 14/13 A3015 RMK A01 T01390128  RH  093%=      5-min Rain = 0
KMD1 061913Z 22002KT 14/13 A3015 RMK A01 T01400128  RH  093%=      5-min Rain = 0
KMD1 061914Z 19002KT 14/13 A3015 RMK A01 T01400129  RH  093%=      5-min Rain = 0
KMD1 061915Z 21002KT 14/13 A3015 RMK A01 T01400128  RH  093%=      5-min Rain = 0
KMD1 061916Z 22003KT 14/13 A3015 RMK A01 T01400129  RH  093%=      5-min Rain = 0
KMD1 061917Z 22004KT 14/13 A3015 RMK A01 T01400129  RH  093%=      5-min Rain = 0
KMD1 061918Z 21004KT 14/13 A3015 RMK A01 T01400128  RH  092%=      5-min Rain = 0
KMD1 061919Z 20004KT 14/13 A3015 RMK A01 T01400128  RH  092%=      5-min Rain = 0
KMD1 061920Z 22004KT 14/13 A3015 RMK A01 T01400128  RH  092%=      5-min Rain = 0
KMD1 061921Z 22003KT 14/13 A3015 RMK A01 T01400128  RH  092%=      5-min Rain = 0
KMD1 061922Z 20003KT 14/13 A3015 RMK A01 T01400129  RH  093%=      5-min Rain = 0
KMD1 061923Z 19004KT 14/13 A3015 RMK A01 T01400128  RH  093%=      5-min Rain = 0
KMD1 061924Z 21003KT 14/13 A3015 RMK A01 T01400128  RH  092%=      5-min Rain = 0
KMD1 061925Z 22002KT 14/13 A3015 RMK A01 T01400128  RH  092%=      5-min Rain = 0
KMD1 061926Z 22002KT 14/13 A3015 RMK A01 T01400128  RH  093%=      5-min Rain = 0
KMD1 061927Z 23004KT 14/13 A3015 RMK A01 T01400128  RH  093%=      5-min Rain = 0
KMD1 061928Z 23005KT 14/13 A3015 RMK A01 T01400128  RH  092%=      5-min Rain = 0
KMD1 061929Z 22005KT 14/13 A3015 RMK A01 T01400128  RH  092%=      5-min Rain = 0
KMD1 061930Z 21004KT 14/13 A3015 RMK A01 T01400128  RH  092%=      5-min Rain = 0
KMD1 061931Z 22003KT 14/13 A3015 RMK A01 T01410128  RH  092%=      5-min Rain = 0
KMD1 061932Z 21002KT 14/13 A3015 RMK A01 T01410128  RH  092%=      5-min Rain = 0
KMD1 061933Z 21003KT 14/13 A3015 RMK A01 T01410128  RH  092%=      5-min Rain = 0
KMD1 061934Z 21003KT 14/13 A3015 RMK A01 T01410128  RH  092%=      5-min Rain = 0
KMD1 061935Z 20003KT 14/13 A3015 RMK A01 T01410128  RH  092%=      5-min Rain = 0
KMD1 061936Z 19004KT 14/13 A3015 RMK A01 T01410128  RH  092%=      5-min Rain = 0
KMD1 061937Z 20004KT 14/13 A3015 RMK A01 T01410128  RH  092%=      5-min Rain = 0
KMD1 061938Z 19004KT 14/13 A3015 RMK A01 T01410128  RH  092%=      5-min Rain = 0
KMD1 061939Z 20004KT 14/13 A3015 RMK A01 T01410129  RH  092%=      5-min Rain = 0
KMD1 061940Z 21003KT 14/13 A3015 RMK A01 T01410129  RH  093%=      5-min Rain = 0
KMD1 061941Z 20004KT 14/13 A3015 RMK A01 T01410130  RH  093%=      5-min Rain = 0
KMD1 061942Z 20004KT 14/13 A3015 RMK A01 T01410130  RH  093%=      5-min Rain = 0
KMD1 061943Z 21004KT 14/13 A3015 RMK A01 T01410130  RH  093%=      5-min Rain = 0
KMD1 061944Z 20004KT 14/13 A3015 RMK A01 T01410131  RH  093%=      5-min Rain = 0
KMD1 061945Z 20004KT 14/13 A3015 RMK A01 T01410130  RH  093%=      5-min Rain = 0
KMD1 061946Z 19003KT 14/13 A3015 RMK A01 T01400130  RH  093%=      5-min Rain = 0
KMD1 061947Z 22004KT 14/13 A3015 RMK A01 T01410131  RH  094%=      5-min Rain = 0
KMD1 061948Z 20002KT 14/13 A3015 RMK A01 T01400130  RH  094%=      5-min Rain = 0
KMD1 061949Z 19003KT 14/13 A3015 RMK A01 T01400131  RH  094%=      5-min Rain = 0
KMD1 061950Z 19003KT 14/13 A3015 RMK A01 T01400131  RH  094%=      5-min Rain = 0
KMD1 061951Z 19003KT 14/13 A3015 RMK A01 T01400131  RH  094%=      5-min Rain = 0
KMD1 061952Z 20002KT 14/13 A3015 RMK A01 T01400132  RH  094%=      5-min Rain = 0
KMD1 061953Z 18003KT 14/13 A3015 RMK A01 T01400132  RH  095%=      5-min Rain = 0
KMD1 061954Z 18002KT 14/13 A3014 RMK A01 T01400131  RH  095%=      5-min Rain = 0
KMD1 061955Z 19002KT 14/13 A3014 RMK A01 T01400131  RH  095%=      5-min Rain = 0
KMD1 061956Z 19003KT 14/13 A3014 RMK A01 T01400132  RH  095%=      5-min Rain = 0
KMD1 061957Z 18003KT 14/13 A3015 RMK A01 T01400132  RH  095%=      5-min Rain = 0
KMD1 061958Z 19002KT 14/13 A3015 RMK A01 T01400132  RH  095%=      5-min Rain = 0
KMD1 061959Z 20002KT 14/13 A3015 RMK A01 T01400132  RH  095%=      5-min Rain = 0
KMD1 062000Z 21003KT 14/13 A3015 RMK A01 T01400132  RH  095%=      5-min Rain = 0
KMD1 062001Z 20002KT 14/13 A3015 RMK A01 T01400132  RH  095%=      5-min Rain = 0
KMD1 062002Z 20001KT 14/13 A3015 RMK A01 T01400133  RH  095%=      5-min Rain = 0
KMD1 062003Z 19001KT 14/13 A3015 RMK A01 T01400133  RH  096%=      5-min Rain = 0
KMD1 062004Z 19001KT 14/13 A3015 RMK A01 T01400133  RH  096%=      5-min Rain = 0
KMD1 062005Z 20001KT 14/13 A3015 RMK A01 T01400133  RH  096%=      5-min Rain = 0
KMD1 062006Z 19001KT 14/13 A3015 RMK A01 T01400133  RH  096%=      5-min Rain = 0
KMD1 062007Z 20001KT 14/13 A3015 RMK A01 T01400133  RH  096%=      5-min Rain = 0
KMD1 062008Z 20002KT 14/13 A3015 RMK A01 T01400133  RH  096%=      5-min Rain = 0
KMD1 062009Z 21002KT 14/13 A3015 RMK A01 T01390133  RH  096%=      5-min Rain = 0
KMD1 062010Z 21001KT 14/13 A3015 RMK A01 T01390133  RH  096%=      5-min Rain = 0
KMD1 062011Z 21001KT 14/13 A3015 RMK A01 T01390133  RH  096%=      5-min Rain = 0
KMD1 062012Z 22001KT 14/13 A3015 RMK A01 T01390133  RH  096%=      5-min Rain = 0
KMD1 062013Z 00000KT 14/13 A3015 RMK A01 T01390133  RH  096%=      5-min Rain = 0
KMD1 062014Z 00000KT 14/13 A3015 RMK A01 T01380132  RH  096%=      5-min Rain = 0
KMD1 062015Z 00000KT 14/13 A3015 RMK A01 T01390133  RH  096%=      5-min Rain = 0
KMD1 062016Z 00000KT 14/13 A3015 RMK A01 T01380133  RH  096%=      5-min Rain = 0
KMD1 062017Z 00000KT 14/13 A3015 RMK A01 T01380133  RH  097%=      5-min Rain = 0
KMD1 062018Z 00000KT 14/13 A3015 RMK A01 T01390133  RH  097%=      5-min Rain = 0
KMD1 062019Z 00000KT 14/13 A3015 RMK A01 T01380133  RH  097%=      5-min Rain = 0
KMD1 062020Z 00000KT 14/13 A3015 RMK A01 T01390134  RH  097%=      5-min Rain = 0
KMD1 062021Z 00000KT 14/13 A3015 RMK A01 T01390134  RH  097%=      5-min Rain = 0
KMD1 062022Z 00000KT 14/13 A3015 RMK A01 T01390134  RH  097%=      5-min Rain = 0
KMD1 062023Z 00000KT 14/13 A3015 RMK A01 T01380134  RH  097%=      5-min Rain = 0
KMD1 062024Z 00000KT 14/13 A3015 RMK A01 T01390134  RH  097%=      5-min Rain = 0
KMD1 062025Z 00000KT 14/13 A3015 RMK A01 T01390134  RH  097%=      5-min Rain = 0
KMD1 062026Z 00000KT 14/13 A3015 RMK A01 T01390134  RH  097%=      5-min Rain = 0
KMD1 062027Z 00000KT 14/14 A3015 RMK A01 T01390135  RH  097%=      5-min Rain = 0
KMD1 062028Z 00000KT 14/14 A3015 RMK A01 T01390135  RH  097%=      5-min Rain = 0
KMD1 062029Z 00000KT 14/14 A3015 RMK A01 T01390135  RH  097%=      5-min Rain = 0
KMD1 062030Z 27001KT 14/14 A3015 RMK A01 T01390135  RH  097%=      5-min Rain = 0
KMD1 062031Z 28002KT 14/14 A3015 RMK A01 T01390135  RH  097%=      5-min Rain = 0
KMD1 062032Z 29001KT 14/14 A3015 RMK A01 T01390135  RH  098%=      5-min Rain = 0
KMD1 062033Z 30002KT 14/14 A3015 RMK A01 T01390136  RH  098%=      5-min Rain = 0
KMD1 062034Z 32002KT 14/14 A3015 RMK A01 T01380135  RH  098%=      5-min Rain = 0
KMD1 062035Z 33002KT 14/14 A3015 RMK A01 T01380135  RH  098%=      5-min Rain = 0
KMD1 062036Z 32002KT 14/13 A3015 RMK A01 T01380134  RH  098%=      5-min Rain = 0
KMD1 062037Z 34002KT 14/14 A3015 RMK A01 T01380135  RH  098%=      5-min Rain = 0
KMD1 062038Z 35001KT 14/13 A3015 RMK A01 T01380134  RH  098%=      5-min Rain = 0
KMD1 062039Z 35002KT 14/13 A3015 RMK A01 T01380134  RH  098%=      5-min Rain = 0
KMD1 062040Z 36002KT 14/13 A3015 RMK A01 T01370134  RH  098%=      5-min Rain = 0
KMD1 062041Z 36002KT 14/14 A3015 RMK A01 T01380135  RH  098%=      5-min Rain = 0
KMD1 062042Z 35002KT 14/14 A3015 RMK A01 T01380135  RH  098%=      5-min Rain = 0
KMD1 062043Z 00002KT 14/14 A3015 RMK A01 T01380135  RH  098%=      5-min Rain = 0
KMD1 062044Z 00002KT 14/14 A3014 RMK A01 T01370135  RH  098%=      5-min Rain = 0
KMD1 062045Z 00002KT 14/14 A3014 RMK A01 T01380135  RH  098%=      5-min Rain = 0
KMD1 062046Z 36002KT 14/14 A3015 RMK A01 T01380135  RH  098%=      5-min Rain = 0
KMD1 062047Z 00002KT 14/14 A3015 RMK A01 T01380135  RH  098%=      5-min Rain = 0
KMD1 062048Z 00002KT 14/14 A3015 RMK A01 T01380136  RH  098%=      5-min Rain = 0
KMD1 062049Z 35002KT 14/14 A3015 RMK A01 T01370135  RH  098%=      5-min Rain = 0
KMD1 062050Z 34002KT 14/14 A3015 RMK A01 T01380135  RH  098%=      5-min Rain = 0
KMD1 062051Z 34002KT 14/14 A3015 RMK A01 T01380136  RH  099%=      5-min Rain = 0
KMD1 062052Z 35002KT 14/14 A3015 RMK A01 T01380135  RH  099%=      5-min Rain = 0
KMD1 062053Z 35002KT 14/14 A3015 RMK A01 T01380135  RH  099%=      5-min Rain = 0
KMD1 062054Z 35002KT 14/14 A3015 RMK A01 T01380136  RH  099%=      5-min Rain = 0
KMD1 062055Z 35002KT 14/14 A3015 RMK A01 T01370135  RH  099%=      5-min Rain = 0
KMD1 062056Z 35003KT 14/14 A3015 RMK A01 T01380136  RH  099%=      5-min Rain = 0
KMD1 062057Z 35003KT 14/14 A3015 RMK A01 T01370136  RH  099%=      5-min Rain = 0
KMD1 062058Z 00003KT 14/14 A3015 RMK A01 T01370136  RH  099%=      5-min Rain = 0
KMD1 062059Z 00003KT 14/14 A3015 RMK A01 T01380136  RH  099%=      5-min Rain = 0
KMD1 062100Z 36003KT 14/14 A3015 RMK A01 T01370136  RH  099%=      5-min Rain = 0.01
KMD1 062101Z 36002KT 14/14 A3015 RMK A01 T01370135  RH  099%=      5-min Rain = 0
KMD1 062102Z 00003KT 14/14 A3015 RMK A01 T01370136  RH  099%=      5-min Rain = 0
KMD1 062103Z 35003KT 14/14 A3015 RMK A01 T01380136  RH  099%=      5-min Rain = 0
KMD1 062104Z 36003KT 14/14 A3015 RMK A01 T01370136  RH  099%=      5-min Rain = 0
KMD1 062105Z 01003KT 14/14 A3015 RMK A01 T01370136  RH  099%=      5-min Rain = 0
KMD1 062106Z 01003KT 14/14 A3015 RMK A01 T01370136  RH  099%=      5-min Rain = 0
KMD1 062107Z 00003KT 14/14 A3015 RMK A01 T01370136  RH  099%=      5-min Rain = 0
KMD1 062108Z 01003KT 14/14 A3015 RMK A01 T01370136  RH  099%=      5-min Rain = 0
KMD1 062109Z 01003KT 14/14 A3015 RMK A01 T01370136  RH  099%=      5-min Rain = 0
KMD1 062110Z 01002KT 14/14 A3015 RMK A01 T01370136  RH  099%=      5-min Rain = 0
KMD1 062111Z 00003KT 14/14 A3015 RMK A01 T01370136  RH  099%=      5-min Rain = 0
KMD1 062112Z 00002KT 14/14 A3015 RMK A01 T01370136  RH  099%=      5-min Rain = 0
KMD1 062113Z 00003KT 14/14 A3015 RMK A01 T01370136  RH  099%=      5-min Rain = 0
KMD1 062114Z 36003KT 14/14 A3015 RMK A01 T01370136  RH  099%=      5-min Rain = 0
KMD1 062115Z 36002KT 14/14 A3015 RMK A01 T01370136  RH  099%=      5-min Rain = 0
KMD1 062116Z 01002KT 14/14 A3015 RMK A01 T01370136  RH  099%=      5-min Rain = 0
KMD1 062117Z 03002KT 14/14 A3015 RMK A01 T01360136  RH  099%=      5-min Rain = 0
KMD1 062118Z 02002KT 14/14 A3015 RMK A01 T01370136  RH  100%=      5-min Rain = 0
KMD1 062119Z 02002KT 14/14 A3015 RMK A01 T01370136  RH  100%=      5-min Rain = 0
KMD1 062120Z 02002KT 14/14 A3015 RMK A01 T01370136  RH  100%=      5-min Rain = 0
KMD1 062121Z 02002KT 14/14 A3015 RMK A01 T01370136  RH  100%=      5-min Rain = 0
KMD1 062122Z 03002KT 14/14 A3015 RMK A01 T01370137  RH  100%=      5-min Rain = 0
KMD1 062123Z 03002KT 14/14 A3015 RMK A01 T01370137  RH  100%=      5-min Rain = 0
KMD1 062124Z 03001KT 14/14 A3015 RMK A01 T01370137  RH  100%=      5-min Rain = 0
KMD1 062125Z 03001KT 14/14 A3015 RMK A01 T01370136  RH  100%=      5-min Rain = 0
KMD1 062126Z 02000KT 14/14 A3015 RMK A01 T01370136  RH  100%=      5-min Rain = 0
KMD1 062127Z 05000KT 14/14 A3015 RMK A01 T01370136  RH  100%=      5-min Rain = 0
KMD1 062128Z 07000KT 14/14 A3015 RMK A01 T01370136  RH  100%=      5-min Rain = 0
KMD1 062129Z 00000KT 14/14 A3015 RMK A01 T01370136  RH  100%=      5-min Rain = 0
KMD1 062130Z 00000KT 14/14 A3015 RMK A01 T01370136  RH  100%=      5-min Rain = 0
KMD1 062131Z 35000KT 14/14 A3015 RMK A01 T01370136  RH  100%=      5-min Rain = 0
KMD1 062132Z 00001KT 14/14 A3015 RMK A01 T01370136  RH  100%=      5-min Rain = 0
KMD1 062133Z 35002KT 14/14 A3015 RMK A01 T01360136  RH  100%=      5-min Rain = 0
KMD1 062134Z 33002KT 14/14 A3015 RMK A01 T01370137  RH  100%=      5-min Rain = 0
KMD1 062135Z 34002KT 14/14 A3015 RMK A01 T01370136  RH  100%=      5-min Rain = 0
KMD1 062136Z 35001KT 14/14 A3015 RMK A01 T01360136  RH  100%=      5-min Rain = 0
KMD1 062137Z 34001KT 14/14 A3015 RMK A01 T01360135  RH  099%=      5-min Rain = 0
KMD1 062138Z 34001KT 14/14 A3015 RMK A01 T01360136  RH  100%=      5-min Rain = 0
KMD1 062139Z 32001KT 14/14 A3015 RMK A01 T01360135  RH  099%=      5-min Rain = 0
KMD1 062140Z 33001KT 14/14 A3015 RMK A01 T01360135  RH  099%=      5-min Rain = 0
KMD1 062141Z 35001KT 14/13 A3015 RMK A01 T01350134  RH  099%=      5-min Rain = 0
KMD1 062142Z 35001KT 14/13 A3015 RMK A01 T01350134  RH  099%=      5-min Rain = 0
KMD1 062143Z 36000KT 14/13 A3015 RMK A01 T01350134  RH  099%=      5-min Rain = 0
KMD1 062144Z 00000KT 14/13 A3015 RMK A01 T01350134  RH  099%=      5-min Rain = 0
KMD1 062145Z 01000KT 14/13 A3015 RMK A01 T01350134  RH  099%=      5-min Rain = 0
KMD1 062146Z 02001KT 14/13 A3015 RMK A01 T01350134  RH  099%=      5-min Rain = 0
KMD1 062147Z 00000KT 14/13 A3015 RMK A01 T01350134  RH  099%=      5-min Rain = 0
KMD1 062148Z 00000KT 14/13 A3015 RMK A01 T01350134  RH  099%=      5-min Rain = 0
KMD1 062149Z 00000KT 14/13 A3015 RMK A01 T01350134  RH  099%=      5-min Rain = 0
KMD1 062150Z 00000KT 14/13 A3015 RMK A01 T01350134  RH  099%=      5-min Rain = 0
KMD1 062151Z 00000KT 14/13 A3015 RMK A01 T01350134  RH  099%=      5-min Rain = 0
KMD1 062152Z 00000KT 14/14 A3015 RMK A01 T01360135  RH  099%=      5-min Rain = 0
KMD1 062153Z 00000KT 14/14 A3015 RMK A01 T01360135  RH  099%=      5-min Rain = 0
KMD1 062154Z 00000KT 14/14 A3015 RMK A01 T01360135  RH  099%=      5-min Rain = 0
KMD1 062155Z 00000KT 14/14 A3015 RMK A01 T01360135  RH  099%=      5-min Rain = 0
KMD1 062156Z 00000KT 14/14 A3015 RMK A01 T01360135  RH  099%=      5-min Rain = 0
KMD1 062157Z 00000KT 14/14 A3015 RMK A01 T01360135  RH  099%=      5-min Rain = 0
KMD1 062158Z 00000KT 14/14 A3015 RMK A01 T01360136  RH  099%=      5-min Rain = 0
KMD1 062159Z 00000KT 14/14 A3015 RMK A01 T01370136  RH  099%=      5-min Rain = 0
KMD1 062200Z 00000KT 14/14 A3015 RMK A01 T01370136  RH  100%=      5-min Rain = 0
KMD1 062201Z 09000KT 14/14 A3015 RMK A01 T01370136  RH  100%=      5-min Rain = 0
KMD1 062202Z 09001KT 14/14 A3015 RMK A01 T01380137  RH  100%=      5-min Rain = 0
KMD1 062203Z 09001KT 14/14 A3015 RMK A01 T01380137  RH  099%=      5-min Rain = 0
KMD1 062204Z 09001KT 14/14 A3015 RMK A01 T01380137  RH  099%=      5-min Rain = 0
KMD1 062205Z 09001KT 14/14 A3015 RMK A01 T01380137  RH  099%=      5-min Rain = 0
KMD1 062206Z 09000KT 14/14 A3015 RMK A01 T01370136  RH  099%=      5-min Rain = 0
KMD1 062207Z 06000KT 14/14 A3015 RMK A01 T01370137  RH  100%=      5-min Rain = 0
KMD1 062208Z 07001KT 14/14 A3015 RMK A01 T01370136  RH  100%=      5-min Rain = 0
KMD1 062209Z 09001KT 14/14 A3015 RMK A01 T01370136  RH  099%=      5-min Rain = 0
KMD1 062210Z 10001KT 14/14 A3015 RMK A01 T01370136  RH  099%=      5-min Rain = 0
KMD1 062211Z 10001KT 14/14 A3015 RMK A01 T01370136  RH  099%=      5-min Rain = 0
KMD1 062212Z 09001KT 14/14 A3015 RMK A01 T01370136  RH  099%=      5-min Rain = 0
KMD1 062213Z 09001KT 14/14 A3015 RMK A01 T01370136  RH  099%=      5-min Rain = 0
KMD1 062214Z 09001KT 14/14 A3015 RMK A01 T01360136  RH  100%=      5-min Rain = 0
KMD1 062215Z 10001KT 14/14 A3015 RMK A01 T01370136  RH  100%=      5-min Rain = 0
KMD1 062216Z 09001KT 14/14 A3015 RMK A01 T01370137  RH  100%=      5-min Rain = 0
KMD1 062217Z 09002KT 14/14 A3015 RMK A01 T01370137  RH  100%=      5-min Rain = 0
KMD1 062218Z 09001KT 14/14 A3015 RMK A01 T01370137  RH  100%=      5-min Rain = 0
KMD1 062219Z 09001KT 14/14 A3015 RMK A01 T01380138  RH  100%=      5-min Rain = 0
KMD1 062220Z 09002KT 14/14 A3015 RMK A01 T01380138  RH  100%=      5-min Rain = 0
KMD1 062221Z 10001KT 14/14 A3015 RMK A01 T01380138  RH  100%=      5-min Rain = 0
KMD1 062222Z 11001KT 14/14 A3015 RMK A01 T01380138  RH  100%=      5-min Rain = 0
KMD1 062223Z 10002KT 14/14 A3015 RMK A01 T01380138  RH  100%=      5-min Rain = 0
KMD1 062224Z 09002KT 14/14 A3015 RMK A01 T01370137  RH  100%=      5-min Rain = 0
KMD1 062225Z 09002KT 14/14 A3015 RMK A01 T01370138  RH  100%=      5-min Rain = 0
KMD1 062226Z 09002KT 14/14 A3015 RMK A01 T01370138  RH  100%=      5-min Rain = 0
KMD1 062227Z 09002KT 14/14 A3015 RMK A01 T01370137  RH  100%=      5-min Rain = 0
KMD1 062228Z 09002KT 14/14 A3015 RMK A01 T01370136  RH  100%=      5-min Rain = 0
KMD1 062229Z 09002KT 14/14 A3015 RMK A01 T01370137  RH  100%=      5-min Rain = 0
KMD1 062230Z 09003KT 14/14 A3015 RMK A01 T01370137  RH  100%=      5-min Rain = 0
KMD1 062231Z 09003KT 14/14 A3015 RMK A01 T01370137  RH  100%=      5-min Rain = 0
KMD1 062232Z 09003KT 14/14 A3015 RMK A01 T01370137  RH  100%=      5-min Rain = 0
KMD1 062233Z 10003KT 14/14 A3015 RMK A01 T01370137  RH  100%=      5-min Rain = 0
KMD1 062234Z 10003KT 14/14 A3015 RMK A01 T01370137  RH  100%=      5-min Rain = 0
KMD1 062235Z 10003KT 14/14 A3015 RMK A01 T01370137  RH  100%=      5-min Rain = 0
KMD1 062236Z 10002KT 14/14 A3015 RMK A01 T01370137  RH  100%=      5-min Rain = 0
KMD1 062237Z 10002KT 14/14 A3015 RMK A01 T01370137  RH  100%=      5-min Rain = 0.01
KMD1 062238Z 10003KT 14/14 A3015 RMK A01 T01370137  RH  100%=      5-min Rain = 0
KMD1 062239Z 10002KT 14/14 A3015 RMK A01 T01370137  RH  100%=      5-min Rain = 0
KMD1 062240Z 10002KT 14/14 A3015 RMK A01 T01370137  RH  100%=      5-min Rain = 0
KMD1 062241Z 10002KT 14/14 A3015 RMK A01 T01370137  RH  100%=      5-min Rain = 0
KMD1 062242Z 10002KT 14/14 A3015 RMK A01 T01370137  RH  100%=      5-min Rain = 0
KMD1 062243Z 09002KT 14/14 A3015 RMK A01 T01370137  RH  100%=      5-min Rain = 0
KMD1 062244Z 09002KT 14/14 A3015 RMK A01 T01370137  RH  100%=      5-min Rain = 0
KMD1 062245Z 09002KT 14/14 A3015 RMK A01 T01370138  RH  100%=      5-min Rain = 0
KMD1 062246Z 08002KT 14/14 A3015 RMK A01 T01370137  RH  100%=      5-min Rain = 0
KMD1 062247Z 09001KT 14/14 A3015 RMK A01 T01370138  RH  100%=      5-min Rain = 0
KMD1 062248Z 08002KT 14/14 A3015 RMK A01 T01380138  RH  100%=      5-min Rain = 0
KMD1 062249Z 06002KT 14/14 A3015 RMK A01 T01370137  RH  100%=      5-min Rain = 0
KMD1 062250Z 06002KT 14/14 A3015 RMK A01 T01370137  RH  100%=      5-min Rain = 0
KMD1 062251Z 06003KT 14/14 A3015 RMK A01 T01370137  RH  100%=      5-min Rain = 0
KMD1 062252Z 06003KT 14/14 A3015 RMK A01 T01370137  RH  100%=      5-min Rain = 0
KMD1 062253Z 07003KT 14/14 A3016 RMK A01 T01370137  RH  100%=      5-min Rain = 0
KMD1 062254Z 06002KT 14/14 A3016 RMK A01 T01370137  RH  100%=      5-min Rain = 0
KMD1 062255Z 06002KT 14/14 A3016 RMK A01 T01370137  RH  100%=      5-min Rain = 0
KMD1 062256Z 05002KT 14/14 A3016 RMK A01 T01370137  RH  100%=      5-min Rain = 0
KMD1 062257Z 04002KT 14/14 A3016 RMK A01 T01370137  RH  100%=      5-min Rain = 0
KMD1 062258Z 04002KT 14/14 A3016 RMK A01 T01370137  RH  100%=      5-min Rain = 0
KMD1 062259Z 04002KT 14/14 A3016 RMK A01 T01370137  RH  100%=      5-min Rain = 0
KMD1 062300Z 03002KT 14/14 A3016 RMK A01 T01370137  RH  100%=      5-min Rain = 0
KMD1 062301Z 03002KT 14/14 A3016 RMK A01 T01370137  RH  100%=      5-min Rain = 0
KMD1 062302Z 03002KT 14/14 A3017 RMK A01 T01370137  RH  100%=      5-min Rain = 0
KMD1 062303Z 02002KT 14/14 A3017 RMK A01 T01370137  RH  100%=      5-min Rain = 0
KMD1 062304Z 03002KT 14/14 A3017 RMK A01 T01370137  RH  100%=      5-min Rain = 0
KMD1 062305Z 02002KT 14/14 A3017 RMK A01 T01370137  RH  100%=      5-min Rain = 0
KMD1 062306Z 02003KT 14/14 A3017 RMK A01 T01370137  RH  100%=      5-min Rain = 0
KMD1 062307Z 02003KT 14/14 A3017 RMK A01 T01370137  RH  100%=      5-min Rain = 0
KMD1 062308Z 03003KT 14/14 A3017 RMK A01 T01370137  RH  100%=      5-min Rain = 0
KMD1 062309Z 03003KT 14/14 A3017 RMK A01 T01370137  RH  100%=      5-min Rain = 0
KMD1 062310Z 04003KT 14/14 A3017 RMK A01 T01370137  RH  100%=      5-min Rain = 0
KMD1 062311Z 03003KT 14/14 A3017 RMK A01 T01370137  RH  100%=      5-min Rain = 0
KMD1 062312Z 03003KT 14/14 A3017 RMK A01 T01370137  RH  100%=      5-min Rain = 0
KMD1 062313Z 03003KT 14/14 A3017 RMK A01 T01370137  RH  100%=      5-min Rain = 0
KMD1 062314Z 03002KT 14/14 A3017 RMK A01 T01370137  RH  100%=      5-min Rain = 0
KMD1 062315Z 02002KT 14/14 A3017 RMK A01 T01370137  RH  100%=      5-min Rain = 0
KMD1 062316Z 02003KT 14/14 A3017 RMK A01 T01370137  RH  100%=      5-min Rain = 0
KMD1 062317Z 02002KT 14/14 A3017 RMK A01 T01360136  RH  100%=      5-min Rain = 0
KMD1 062318Z 02002KT 14/14 A3017 RMK A01 T01370137  RH  100%=      5-min Rain = 0
KMD1 062319Z 02002KT 14/14 A3017 RMK A01 T01370137  RH  100%=      5-min Rain = 0
KMD1 062320Z 02002KT 14/14 A3017 RMK A01 T01360137  RH  100%=      5-min Rain = 0
KMD1 062321Z 03002KT 14/14 A3017 RMK A01 T01370137  RH  100%=      5-min Rain = 0
KMD1 062322Z 02002KT 14/14 A3017 RMK A01 T01370137  RH  100%=      5-min Rain = 0
KMD1 062323Z 03002KT 14/14 A3017 RMK A01 T01370137  RH  100%=      5-min Rain = 0
KMD1 062324Z 04002KT 14/14 A3017 RMK A01 T01360136  RH  100%=      5-min Rain = 0
KMD1 062325Z 03002KT 14/14 A3017 RMK A01 T01360136  RH  100%=      5-min Rain = 0
KMD1 062326Z 04002KT 14/14 A3017 RMK A01 T01360136  RH  100%=      5-min Rain = 0
KMD1 062327Z 04002KT 14/14 A3017 RMK A01 T01360136  RH  100%=      5-min Rain = 0
KMD1 062328Z 04001KT 14/14 A3017 RMK A01 T01360136  RH  100%=      5-min Rain = 0
KMD1 062329Z 03002KT 14/14 A3017 RMK A01 T01360136  RH  100%=      5-min Rain = 0
KMD1 062330Z 04001KT 14/14 A3017 RMK A01 T01360136  RH  100%=      5-min Rain = 0
KMD1 062331Z 03001KT 14/14 A3017 RMK A01 T01360136  RH  100%=      5-min Rain = 0
KMD1 062332Z 03001KT 14/14 A3017 RMK A01 T01360136  RH  100%=      5-min Rain = 0
KMD1 062333Z 03001KT 14/14 A3017 RMK A01 T01360136  RH  100%=      5-min Rain = 0
KMD1 062334Z 02002KT 14/14 A3018 RMK A01 T01360136  RH  100%=      5-min Rain = 0
KMD1 062335Z 02001KT 14/14 A3018 RMK A01 T01360136  RH  100%=      5-min Rain = 0
KMD1 062336Z 01001KT 14/14 A3018 RMK A01 T01360136  RH  100%=      5-min Rain = 0
KMD1 062337Z 02002KT 14/14 A3018 RMK A01 T01360136  RH  100%=      5-min Rain = 0
KMD1 062338Z 02001KT 14/14 A3018 RMK A01 T01360136  RH  100%=      5-min Rain = 0
KMD1 062339Z 02001KT 14/14 A3018 RMK A01 T01360136  RH  100%=      5-min Rain = 0
KMD1 062340Z 02001KT 14/14 A3018 RMK A01 T01360136  RH  100%=      5-min Rain = 0
KMD1 062341Z 02001KT 14/14 A3018 RMK A01 T01360136  RH  100%=      5-min Rain = 0
KMD1 062342Z 03001KT 14/14 A3018 RMK A01 T01360136  RH  100%=      5-min Rain = 0
KMD1 062343Z 03001KT 14/14 A3018 RMK A01 T01360136  RH  100%=      5-min Rain = 0
KMD1 062344Z 03001KT 14/14 A3018 RMK A01 T01360136  RH  100%=      5-min Rain = 0
KMD1 062345Z 03001KT 14/14 A3018 RMK A01 T01360136  RH  100%=      5-min Rain = 0
KMD1 062346Z 04001KT 14/14 A3018 RMK A01 T01360136  RH  100%=      5-min Rain = 0
KMD1 062347Z 04002KT 14/14 A3018 RMK A01 T01360136  RH  100%=      5-min Rain = 0
KMD1 062348Z 04002KT 14/14 A3018 RMK A01 T01360136  RH  100%=      5-min Rain = 0
KMD1 062349Z 05002KT 14/14 A3018 RMK A01 T01360136  RH  100%=      5-min Rain = 0
KMD1 062350Z 06005KT 14/14 A3018 RMK A01 T01360136  RH  100%=      5-min Rain = 0
KMD1 062351Z 04006KT 13/13 A3018 RMK A01 T01340134  RH  100%=      5-min Rain = 0
KMD1 062352Z 04006KT 13/13 A3018 RMK A01 T01320132  RH  100%=      5-min Rain = 0
KMD1 062353Z 04005KT 13/13 A3018 RMK A01 T01310131  RH  100%=      5-min Rain = 0
KMD1 062354Z 04006KT 13/13 A3018 RMK A01 T01300130  RH  100%=      5-min Rain = 0
KMD1 062355Z 03006KT 13/13 A3018 RMK A01 T01290129  RH  100%=      5-min Rain = 0
KMD1 062356Z 04006KT 13/13 A3018 RMK A01 T01280128  RH  100%=      5-min Rain = 0
KMD1 062357Z 04006KT 13/13 A3018 RMK A01 T01280128  RH  100%=      5-min Rain = 0
KMD1 062358Z 04007KT 13/13 A3018 RMK A01 T01270128  RH  100%=      5-min Rain = 0
KMD1 062359Z 04006KT 13/13 A3018 RMK A01 T01270127  RH  100%=      5-min Rain = 0
KMD1 070000Z 04007KT 13/13 A3018 RMK A01 T01260126  RH  100%=      5-min Rain = 0
KMD1 070001Z 04005KT 13/13 A3018 RMK A01 T01270127  RH  100%=      5-min Rain = 0
KMD1 070002Z 04005KT 13/13 A3018 RMK A01 T01270127  RH  100%=      5-min Rain = 0
KMD1 070003Z 04005KT 13/13 A3018 RMK A01 T01260126  RH  100%=      5-min Rain = 0
KMD1 070004Z 04006KT 13/13 A3018 RMK A01 T01260126  RH  100%=      5-min Rain = 0
KMD1 070005Z 04006KT 13/13 A3018 RMK A01 T01260126  RH  100%=      5-min Rain = 0
KMD1 070006Z 05005KT 13/13 A3018 RMK A01 T01250126  RH  100%=      5-min Rain = 0
KMD1 070007Z 05005KT 13/13 A3018 RMK A01 T01260126  RH  100%=      5-min Rain = 0
KMD1 070008Z 05005KT 13/13 A3018 RMK A01 T01260126  RH  100%=      5-min Rain = 0
KMD1 070009Z 05005KT 13/13 A3018 RMK A01 T01250126  RH  100%=      5-min Rain = 0
KMD1 070010Z 05005KT 13/13 A3018 RMK A01 T01250125  RH  100%=      5-min Rain = 0
KMD1 070011Z 05005KT 13/13 A3018 RMK A01 T01250125  RH  100%=      5-min Rain = 0
KMD1 070012Z 05006KT 13/13 A3018 RMK A01 T01250125  RH  100%=      5-min Rain = 0
KMD1 070013Z 05006KT 12/12 A3018 RMK A01 T01240124  RH  100%=      5-min Rain = 0.01
KMD1 070014Z 05004KT 12/12 A3018 RMK A01 T01240124  RH  100%=      5-min Rain = 0
KMD1 070015Z 05005KT 12/12 A3018 RMK A01 T01240124  RH  100%=      5-min Rain = 0
KMD1 070016Z 04005KT 12/12 A3019 RMK A01 T01240124  RH  100%=      5-min Rain = 0
KMD1 070017Z 04005KT 12/12 A3019 RMK A01 T01240124  RH  100%=      5-min Rain = 0
KMD1 070018Z 04004KT 12/12 A3019 RMK A01 T01240124  RH  100%=      5-min Rain = 0
KMD1 070019Z 04006KT 12/12 A3019 RMK A01 T01240124  RH  100%=      5-min Rain = 0
KMD1 070020Z 05005KT 12/12 A3019 RMK A01 T01240124  RH  100%=      5-min Rain = 0
KMD1 070021Z 05006KT 12/12 A3019 RMK A01 T01230124  RH  100%=      5-min Rain = 0
KMD1 070022Z 05005KT 12/12 A3019 RMK A01 T01230123  RH  100%=      5-min Rain = 0
KMD1 070023Z 05005KT 12/12 A3019 RMK A01 T01230123  RH  100%=      5-min Rain = 0
KMD1 070024Z 05005KT 12/12 A3019 RMK A01 T01230123  RH  100%=      5-min Rain = 0
KMD1 070025Z 05004KT 12/12 A3019 RMK A01 T01230123  RH  100%=      5-min Rain = 0
KMD1 070026Z 05004KT 12/12 A3019 RMK A01 T01230123  RH  100%=      5-min Rain = 0
KMD1 070027Z 05003KT 12/12 A3019 RMK A01 T01230123  RH  100%=      5-min Rain = 0
KMD1 070028Z 05004KT 12/12 A3019 RMK A01 T01230123  RH  100%=      5-min Rain = 0
KMD1 070029Z 04004KT 12/12 A3019 RMK A01 T01230123  RH  100%=      5-min Rain = 0
KMD1 070030Z 04003KT 12/12 A3019 RMK A01 T01230123  RH  100%=      5-min Rain = 0
KMD1 070031Z 04003KT 12/12 A3019 RMK A01 T01230123  RH  100%=      5-min Rain = 0
KMD1 070032Z 04004KT 12/12 A3019 RMK A01 T01230123  RH  100%=      5-min Rain = 0
KMD1 070033Z 04004KT 12/12 A3019 RMK A01 T01240124  RH  100%=      5-min Rain = 0
KMD1 070034Z 04004KT 12/12 A3019 RMK A01 T01230123  RH  100%=      5-min Rain = 0
KMD1 070035Z 04004KT 12/12 A3019 RMK A01 T01230123  RH  100%=      5-min Rain = 0
KMD1 070036Z 04003KT 12/12 A302 RMK A01 T01230123  RH  100%=      5-min Rain = 0
KMD1 070037Z 03004KT 12/12 A302 RMK A01 T01230123  RH  100%=      5-min Rain = 0
KMD1 070038Z 03004KT 12/12 A302 RMK A01 T01230123  RH  100%=      5-min Rain = 0
KMD1 070039Z 03004KT 12/12 A302 RMK A01 T01230123  RH  100%=      5-min Rain = 0
KMD1 070040Z 03003KT 12/12 A302 RMK A01 T01230123  RH  100%=      5-min Rain = 0
KMD1 070041Z 03004KT 12/12 A302 RMK A01 T01230123  RH  100%=      5-min Rain = 0
KMD1 070042Z 03004KT 12/12 A302 RMK A01 T01230123  RH  100%=      5-min Rain = 0
KMD1 070043Z 02004KT 12/12 A302 RMK A01 T01230123  RH  100%=      5-min Rain = 0
KMD1 070044Z 03004KT 12/12 A302 RMK A01 T01230123  RH  100%=      5-min Rain = 0.01
KMD1 070045Z 03003KT 12/12 A302 RMK A01 T01230123  RH  100%=      5-min Rain = 0
KMD1 070046Z 03004KT 12/12 A302 RMK A01 T01230123  RH  100%=      5-min Rain = 0
KMD1 070047Z 01003KT 12/12 A302 RMK A01 T01220122  RH  100%=      5-min Rain = 0
KMD1 070048Z 01004KT 12/12 A302 RMK A01 T01220122  RH  100%=      5-min Rain = 0
KMD1 070049Z 01004KT 12/12 A302 RMK A01 T01220123  RH  100%=      5-min Rain = 0
KMD1 070050Z 01003KT 12/12 A302 RMK A01 T01220122  RH  100%=      5-min Rain = 0
KMD1 070051Z 01004KT 12/12 A302 RMK A01 T01220122  RH  100%=      5-min Rain = 0
KMD1 070052Z 01004KT 12/12 A302 RMK A01 T01220122  RH  100%=      5-min Rain = 0
KMD1 070053Z 02004KT 12/12 A302 RMK A01 T01220122  RH  100%=      5-min Rain = 0
KMD1 070054Z 01004KT 12/12 A302 RMK A01 T01220122  RH  100%=      5-min Rain = 0
KMD1 070055Z 02004KT 12/12 A302 RMK A01 T01220122  RH  100%=      5-min Rain = 0
KMD1 070056Z 02004KT 12/12 A302 RMK A01 T01220122  RH  100%=      5-min Rain = 0
KMD1 070057Z 02004KT 12/12 A302 RMK A01 T01220122  RH  100%=      5-min Rain = 0
KMD1 070058Z 02004KT 12/12 A302 RMK A01 T01220122  RH  100%=      5-min Rain = 0
KMD1 070059Z 02004KT 12/12 A302 RMK A01 T01210121  RH  100%=      5-min Rain = 0
KMD1 070100Z 03004KT 12/12 A302 RMK A01 T01210122  RH  100%=      5-min Rain = 0
KMD1 070101Z 02005KT 12/12 A3021 RMK A01 T01210121  RH  100%=      5-min Rain = 0
KMD1 070102Z 02005KT 12/12 A3021 RMK A01 T01210121  RH  100%=      5-min Rain = 0
KMD1 070103Z 02005KT 12/12 A3021 RMK A01 T01210121  RH  100%=      5-min Rain = 0
KMD1 070104Z 02004KT 12/12 A3021 RMK A01 T01210121  RH  100%=      5-min Rain = 0
KMD1 070105Z 02006KT 12/12 A3021 RMK A01 T01210121  RH  100%=      5-min Rain = 0
KMD1 070106Z 03006KT 12/12 A3021 RMK A01 T01210121  RH  100%=      5-min Rain = 0
KMD1 070107Z 03005KT 12/12 A3021 RMK A01 T01210121  RH  100%=      5-min Rain = 0
KMD1 070108Z 03005KT 12/12 A3021 RMK A01 T01210121  RH  100%=      5-min Rain = 0
KMD1 070109Z 04006KT 12/12 A3021 RMK A01 T01200120  RH  100%=      5-min Rain = 0
KMD1 070110Z 04006KT 12/12 A3021 RMK A01 T01200120  RH  100%=      5-min Rain = 0
KMD1 070111Z 04006KT 12/12 A3021 RMK A01 T01200120  RH  100%=      5-min Rain = 0
KMD1 070112Z 04004KT 12/12 A3021 RMK A01 T01200120  RH  100%=      5-min Rain = 0
KMD1 070113Z 05006KT 12/12 A3021 RMK A01 T01200120  RH  100%=      5-min Rain = 0
KMD1 070114Z 04004KT 12/12 A3021 RMK A01 T01200120  RH  100%=      5-min Rain = 0
KMD1 070115Z 04007KT 12/12 A3021 RMK A01 T01200120  RH  100%=      5-min Rain = 0
KMD1 070116Z 04006KT 12/12 A3021 RMK A01 T01190119  RH  100%=      5-min Rain = 0
KMD1 070117Z 04007KT 12/12 A3021 RMK A01 T01190119  RH  100%=      5-min Rain = 0
KMD1 070118Z 04006KT 12/12 A3021 RMK A01 T01190119  RH  100%=      5-min Rain = 0
KMD1 070119Z 05006KT 12/12 A3021 RMK A01 T01190119  RH  100%=      5-min Rain = 0
KMD1 070120Z 05005KT 12/12 A3021 RMK A01 T01190119  RH  100%=      5-min Rain = 0
KMD1 070121Z 05005KT 12/12 A3021 RMK A01 T01190119  RH  100%=      5-min Rain = 0
KMD1 070122Z 05006KT 12/12 A3021 RMK A01 T01190119  RH  100%=      5-min Rain = 0
KMD1 070123Z 05006KT 12/12 A3021 RMK A01 T01180118  RH  100%=      5-min Rain = 0
KMD1 070124Z 05007KT 12/12 A3021 RMK A01 T01180118  RH  100%=      5-min Rain = 0
KMD1 070125Z 06006KT 12/12 A3021 RMK A01 T01180118  RH  100%=      5-min Rain = 0
KMD1 070126Z 05006KT 12/12 A3021 RMK A01 T01180118  RH  100%=      5-min Rain = 0
KMD1 070127Z 06005KT 12/12 A3021 RMK A01 T01180118  RH  100%=      5-min Rain = 0
KMD1 070128Z 05006KT 12/12 A3021 RMK A01 T01180118  RH  100%=      5-min Rain = 0
KMD1 070129Z 05005KT 12/12 A3021 RMK A01 T01180118  RH  100%=      5-min Rain = 0
KMD1 070130Z 06005KT 12/12 A3021 RMK A01 T01180118  RH  100%=      5-min Rain = 0
KMD1 070131Z 06005KT 12/12 A3021 RMK A01 T01180118  RH  100%=      5-min Rain = 0
KMD1 070132Z 06004KT 12/12 A3021 RMK A01 T01180118  RH  100%=      5-min Rain = 0
KMD1 070133Z 05005KT 12/12 A3021 RMK A01 T01180118  RH  100%=      5-min Rain = 0
KMD1 070134Z 05004KT 12/12 A3021 RMK A01 T01180118  RH  100%=      5-min Rain = 0
KMD1 070135Z 05004KT 12/12 A3021 RMK A01 T01180118  RH  100%=      5-min Rain = 0
KMD1 070136Z 06004KT 12/12 A3021 RMK A01 T01180118  RH  100%=      5-min Rain = 0
KMD1 070137Z 07004KT 12/12 A3021 RMK A01 T01180118  RH  100%=      5-min Rain = 0
KMD1 070138Z 06005KT 12/12 A3021 RMK A01 T01180118  RH  100%=      5-min Rain = 0
KMD1 070139Z 06005KT 12/12 A3021 RMK A01 T01180118  RH  100%=      5-min Rain = 0
KMD1 070140Z 06005KT 12/12 A3021 RMK A01 T01180118  RH  100%=      5-min Rain = 0
KMD1 070141Z 06005KT 12/12 A3021 RMK A01 T01180118  RH  100%=      5-min Rain = 0
KMD1 070142Z 06005KT 12/12 A3021 RMK A01 T01180118  RH  100%=      5-min Rain = 0
KMD1 070143Z 06005KT 12/12 A3021 RMK A01 T01180118  RH  100%=      5-min Rain = 0
KMD1 070144Z 06005KT 12/12 A3022 RMK A01 T01180118  RH  100%=      5-min Rain = 0
KMD1 070145Z 06005KT 12/12 A3022 RMK A01 T01180118  RH  100%=      5-min Rain = 0
KMD1 070146Z 05004KT 12/12 A3022 RMK A01 T01180118  RH  100%=      5-min Rain = 0
KMD1 070147Z 05004KT 12/12 A3022 RMK A01 T01180118  RH  100%=      5-min Rain = 0
KMD1 070148Z 05004KT 12/12 A3022 RMK A01 T01180118  RH  100%=      5-min Rain = 0
KMD1 070149Z 05004KT 12/12 A3022 RMK A01 T01180118  RH  100%=      5-min Rain = 0
KMD1 070150Z 05004KT 12/12 A3022 RMK A01 T01180118  RH  100%=      5-min Rain = 0
KMD1 070151Z 05004KT 12/12 A3021 RMK A01 T01180118  RH  100%=      5-min Rain = 0
KMD1 070152Z 04005KT 12/12 A3022 RMK A01 T01170117  RH  100%=      5-min Rain = 0
KMD1 070153Z 04004KT 12/12 A3022 RMK A01 T01170117  RH  100%=      5-min Rain = 0
KMD1 070154Z 04004KT 12/12 A3022 RMK A01 T01170117  RH  100%=      5-min Rain = 0
KMD1 070155Z 04004KT 12/12 A3022 RMK A01 T01170117  RH  100%=      5-min Rain = 0
KMD1 070156Z 03005KT 12/12 A3022 RMK A01 T01170117  RH  100%=      5-min Rain = 0
KMD1 070157Z 03006KT 12/12 A3022 RMK A01 T01170117  RH  100%=      5-min Rain = 0
KMD1 070158Z 03006KT 12/12 A3022 RMK A01 T01170117  RH  100%=      5-min Rain = 0
KMD1 070159Z 04007KT 12/12 A3022 RMK A01 T01160116  RH  100%=      5-min Rain = 0
KMD1 070200Z 03007KT 12/12 A3022 RMK A01 T01160116  RH  100%=      5-min Rain = 0
KMD1 070201Z 03006KT 12/12 A3022 RMK A01 T01160116  RH  100%=      5-min Rain = 0
KMD1 070202Z 03006KT 12/12 A3022 RMK A01 T01150115  RH  100%=      5-min Rain = 0
KMD1 070203Z 03006KT 12/12 A3023 RMK A01 T01150116  RH  100%=      5-min Rain = 0
KMD1 070204Z 03006KT 12/12 A3023 RMK A01 T01150115  RH  100%=      5-min Rain = 0
KMD1 070205Z 02005KT 12/12 A3023 RMK A01 T01150115  RH  100%=      5-min Rain = 0
KMD1 070206Z 02006KT 12/12 A3023 RMK A01 T01160116  RH  100%=      5-min Rain = 0
KMD1 070207Z 02005KT 12/12 A3023 RMK A01 T01150115  RH  100%=      5-min Rain = 0
KMD1 070208Z 02006KT 12/12 A3023 RMK A01 T01150115  RH  100%=      5-min Rain = 0
KMD1 070209Z 02006KT 12/12 A3023 RMK A01 T01150115  RH  100%=      5-min Rain = 0
KMD1 070210Z 00006KT 12/12 A3023 RMK A01 T01160116  RH  100%=      5-min Rain = 0
KMD1 070211Z 35011KT 11/11 A3023 RMK A01 T01140114  RH  100%=      5-min Rain = 0
KMD1 070212Z 35015KT 10/10 A3023 RMK A01 T01030099  RH  097%=      5-min Rain = 0
KMD1 070213Z 36012KT 10/09 A3023 RMK A01 T00950090  RH  097%=      5-min Rain = 0
KMD1 070214Z 36012KT 09/09 A3023 RMK A01 T00920089  RH  098%=      5-min Rain = 0
KMD1 070215Z 36013KT 09/09 A3024 RMK A01 T00910088  RH  098%=      5-min Rain = 0
KMD1 070216Z 36012KT 09/09 A3024 RMK A01 T00900088  RH  098%=      5-min Rain = 0
KMD1 070217Z 36012KT 09/09 A3024 RMK A01 T00890087  RH  099%=      5-min Rain = 0
KMD1 070218Z 36010KT 09/09 A3024 RMK A01 T00890087  RH  099%=      5-min Rain = 0
KMD1 070219Z 36012KT 09/09 A3024 RMK A01 T00890087  RH  099%=      5-min Rain = 0
KMD1 070220Z 00010KT 09/09 A3024 RMK A01 T00880086  RH  099%=      5-min Rain = 0
KMD1 070221Z 36012KT 09/08 A3025 RMK A01 T00860084  RH  099%=      5-min Rain = 0
KMD1 070222Z 35011KT 09/08 A3025 RMK A01 T00850083  RH  098%=      5-min Rain = 0
KMD1 070223Z 00012KT 09/08 A3025 RMK A01 T00850083  RH  099%=      5-min Rain = 0
KMD1 070224Z 00010KT 08/08 A3025 RMK A01 T00840082  RH  099%=      5-min Rain = 0.01
KMD1 070225Z 01010KT 08/08 A3025 RMK A01 T00840082  RH  099%=      5-min Rain = 0
KMD1 070226Z 01012KT 08/08 A3025 RMK A01 T00830081  RH  099%=      5-min Rain = 0
KMD1 070227Z 01010KT 08/08 A3025 RMK A01 T00820080  RH  099%=      5-min Rain = 0
KMD1 070228Z 01010KT 08/08 A3025 RMK A01 T00820080  RH  099%=      5-min Rain = 0
KMD1 070229Z 01009KT 08/08 A3025 RMK A01 T00810079  RH  099%=      5-min Rain = 0
KMD1 070230Z 00009KT 08/08 A3025 RMK A01 T00810079  RH  099%=      5-min Rain = 0
KMD1 070231Z 00010KT 08/08 A3025 RMK A01 T00800079  RH  099%=      5-min Rain = 0
KMD1 070232Z 36011KT 08/08 A3025 RMK A01 T00800078  RH  099%=      5-min Rain = 0
KMD1 070233Z 00011KT 08/08 A3025 RMK A01 T00790077  RH  099%=      5-min Rain = 0
KMD1 070234Z 00012KT 08/08 A3025 RMK A01 T00780076  RH  099%=      5-min Rain = 0
KMD1 070235Z 01014KT 08/08 A3025 RMK A01 T00770076  RH  099%=      5-min Rain = 0
KMD1 070236Z 00012KT 08/08 A3025 RMK A01 T00770075  RH  099%=      5-min Rain = 0
KMD1 070237Z 01012KT 08/07 A3025 RMK A01 T00760074  RH  099%=      5-min Rain = 0
KMD1 070238Z 01011KT 08/07 A3025 RMK A01 T00760074  RH  099%=      5-min Rain = 0
KMD1 070239Z 01009KT 08/07 A3025 RMK A01 T00760074  RH  099%=      5-min Rain = 0
KMD1 070240Z 01011KT 08/08 A3025 RMK A01 T00760075  RH  099%=      5-min Rain = 0
KMD1 070241Z 01010KT 08/07 A3025 RMK A01 T00760074  RH  099%=      5-min Rain = 0
KMD1 070242Z 00011KT 08/07 A3025 RMK A01 T00760074  RH  099%=      5-min Rain = 0
KMD1 070243Z 00010KT 08/07 A3025 RMK A01 T00750074  RH  099%=      5-min Rain = 0
KMD1 070244Z 00009KT 08/07 A3025 RMK A01 T00750074  RH  099%=      5-min Rain = 0
KMD1 070245Z 00009KT 08/07 A3025 RMK A01 T00750073  RH  099%=      5-min Rain = 0
KMD1 070246Z 36009KT 08/07 A3025 RMK A01 T00750073  RH  099%=      5-min Rain = 0
KMD1 070247Z 36011KT 07/07 A3025 RMK A01 T00740073  RH  099%=      5-min Rain = 0
KMD1 070248Z 36013KT 07/07 A3025 RMK A01 T00730072  RH  099%=      5-min Rain = 0
KMD1 070249Z 36013KT 07/07 A3025 RMK A01 T00720070  RH  099%=      5-min Rain = 0
KMD1 070250Z 36012KT 07/07 A3025 RMK A01 T00710069  RH  099%=      5-min Rain = 0
KMD1 070251Z 00013KT 07/07 A3025 RMK A01 T00710069  RH  099%=      5-min Rain = 0
KMD1 070252Z 35014KT 07/07 A3025 RMK A01 T00710069  RH  099%=      5-min Rain = 0
KMD1 070253Z 36012KT 07/07 A3025 RMK A01 T00700068  RH  099%=      5-min Rain = 0
KMD1 070254Z 36011KT 07/07 A3025 RMK A01 T00700068  RH  099%=      5-min Rain = 0
KMD1 070255Z 36012KT 07/07 A3025 RMK A01 T00700068  RH  099%=      5-min Rain = 0
KMD1 070256Z 35012KT 07/07 A3025 RMK A01 T00700068  RH  099%=      5-min Rain = 0
KMD1 070257Z 00010KT 07/07 A3025 RMK A01 T00690067  RH  099%=      5-min Rain = 0
KMD1 070258Z 00011KT 07/07 A3025 RMK A01 T00690067  RH  099%=      5-min Rain = 0
KMD1 070259Z 36012KT 07/07 A3025 RMK A01 T00690067  RH  099%=      5-min Rain = 0
KMD1 070300Z 00012KT 07/07 A3025 RMK A01 T00680066  RH  099%=      5-min Rain = 0
KMD1 070301Z 00011KT 07/07 A3025 RMK A01 T00680066  RH  099%=      5-min Rain = 0
KMD1 070302Z 36011KT 07/07 A3025 RMK A01 T00670066  RH  099%=      5-min Rain = 0
KMD1 070303Z 00011KT 07/07 A3025 RMK A01 T00670066  RH  099%=      5-min Rain = 0
KMD1 070304Z 01010KT 07/07 A3025 RMK A01 T00670065  RH  099%=      5-min Rain = 0
KMD1 070305Z 00011KT 07/07 A3025 RMK A01 T00670065  RH  099%=      5-min Rain = 0
KMD1 070306Z 01009KT 07/07 A3025 RMK A01 T00660065  RH  099%=      5-min Rain = 0
KMD1 070307Z 00008KT 07/07 A3025 RMK A01 T00660065  RH  099%=      5-min Rain = 0
KMD1 070308Z 00010KT 07/07 A3025 RMK A01 T00660065  RH  099%=      5-min Rain = 0
KMD1 070309Z 02011KT 07/07 A3025 RMK A01 T00660065  RH  099%=      5-min Rain = 0
KMD1 070310Z 00007KT 07/07 A3025 RMK A01 T00660065  RH  099%=      5-min Rain = 0
KMD1 070311Z 01009KT 07/07 A3025 RMK A01 T00660065  RH  099%=      5-min Rain = 0
KMD1 070312Z 02009KT 07/07 A3025 RMK A01 T00660065  RH  099%=      5-min Rain = 0
KMD1 070313Z 01009KT 07/07 A3025 RMK A01 T00660065  RH  099%=      5-min Rain = 0
KMD1 070314Z 01007KT 07/07 A3025 RMK A01 T00660065  RH  099%=      5-min Rain = 0
KMD1 070315Z 02010KT 07/07 A3025 RMK A01 T00660065  RH  099%=      5-min Rain = 0
KMD1 070316Z 02010KT 07/07 A3025 RMK A01 T00660065  RH  099%=      5-min Rain = 0
KMD1 070317Z 02008KT 07/06 A3025 RMK A01 T00660064  RH  099%=      5-min Rain = 0
KMD1 070318Z 03006KT 07/06 A3025 RMK A01 T00650064  RH  099%=      5-min Rain = 0
KMD1 070319Z 02008KT 07/06 A3025 RMK A01 T00650064  RH  099%=      5-min Rain = 0
KMD1 070320Z 02008KT 07/06 A3024 RMK A01 T00650064  RH  099%=      5-min Rain = 0
KMD1 070321Z 03006KT 07/06 A3024 RMK A01 T00650064  RH  099%=      5-min Rain = 0
KMD1 070322Z 03010KT 07/06 A3024 RMK A01 T00650064  RH  099%=      5-min Rain = 0
KMD1 070323Z 03008KT 06/06 A3025 RMK A01 T00640063  RH  099%=      5-min Rain = 0
KMD1 070324Z 02008KT 06/06 A3025 RMK A01 T00640063  RH  099%=      5-min Rain = 0
KMD1 070325Z 02008KT 06/06 A3025 RMK A01 T00640063  RH  099%=      5-min Rain = 0
KMD1 070326Z 02009KT 06/06 A3025 RMK A01 T00640063  RH  099%=      5-min Rain = 0
KMD1 070327Z 02008KT 06/06 A3025 RMK A01 T00640063  RH  099%=      5-min Rain = 0
KMD1 070328Z 02007KT 06/06 A3025 RMK A01 T00640062  RH  099%=      5-min Rain = 0
KMD1 070329Z 02006KT 06/06 A3025 RMK A01 T00640062  RH  099%=      5-min Rain = 0
KMD1 070330Z 03008KT 06/06 A3026 RMK A01 T00640062  RH  099%=      5-min Rain = 0
KMD1 070331Z 03006KT 06/06 A3026 RMK A01 T00640062  RH  099%=      5-min Rain = 0
KMD1 070332Z 01005KT 06/06 A3026 RMK A01 T00630062  RH  099%=      5-min Rain = 0
KMD1 070333Z 02007KT 06/06 A3026 RMK A01 T00630062  RH  099%=      5-min Rain = 0
KMD1 070334Z 01006KT 06/06 A3026 RMK A01 T00640062  RH  099%=      5-min Rain = 0
KMD1 070335Z 01008KT 06/06 A3026 RMK A01 T00630062  RH  099%=      5-min Rain = 0
KMD1 070336Z 01007KT 06/06 A3026 RMK A01 T00630062  RH  099%=      5-min Rain = 0
KMD1 070337Z 01007KT 06/06 A3026 RMK A01 T00640062  RH  099%=      5-min Rain = 0
KMD1 070338Z 00008KT 06/06 A3026 RMK A01 T00640062  RH  099%=      5-min Rain = 0
KMD1 070339Z 01008KT 06/06 A3026 RMK A01 T00630062  RH  099%=      5-min Rain = 0
KMD1 070340Z 02007KT 06/06 A3026 RMK A01 T00630062  RH  099%=      5-min Rain = 0
KMD1 070341Z 01005KT 06/06 A3026 RMK A01 T00630062  RH  099%=      5-min Rain = 0
KMD1 070342Z 02007KT 06/06 A3026 RMK A01 T00630062  RH  099%=      5-min Rain = 0
KMD1 070343Z 02008KT 06/06 A3026 RMK A01 T00630062  RH  099%=      5-min Rain = 0
KMD1 070344Z 01008KT 06/06 A3026 RMK A01 T00630062  RH  099%=      5-min Rain = 0
KMD1 070345Z 02007KT 06/06 A3026 RMK A01 T00630062  RH  099%=      5-min Rain = 0
KMD1 070346Z 01006KT 06/06 A3026 RMK A01 T00630062  RH  099%=      5-min Rain = 0
KMD1 070347Z 03006KT 06/06 A3026 RMK A01 T00630062  RH  099%=      5-min Rain = 0
KMD1 070348Z 04007KT 06/06 A3026 RMK A01 T00630062  RH  099%=      5-min Rain = 0
KMD1 070349Z 04008KT 06/06 A3026 RMK A01 T00630062  RH  099%=      5-min Rain = 0
KMD1 070350Z 03007KT 06/06 A3026 RMK A01 T00630062  RH  099%=      5-min Rain = 0.01
KMD1 070351Z 02009KT 06/06 A3026 RMK A01 T00620061  RH  099%=      5-min Rain = 0
KMD1 070352Z 03007KT 06/06 A3026 RMK A01 T00630062  RH  099%=      5-min Rain = 0
KMD1 070353Z 01010KT 06/06 A3026 RMK A01 T00630062  RH  099%=      5-min Rain = 0
KMD1 070354Z 02006KT 06/06 A3026 RMK A01 T00630062  RH  099%=      5-min Rain = 0
KMD1 070355Z 04004KT 06/06 A3025 RMK A01 T00630062  RH  099%=      5-min Rain = 0
KMD1 070356Z 03005KT 06/06 A3025 RMK A01 T00620062  RH  099%=      5-min Rain = 0
KMD1 070357Z 05005KT 06/06 A3025 RMK A01 T00630062  RH  099%=      5-min Rain = 0
KMD1 070358Z 04007KT 06/06 A3025 RMK A01 T00630062  RH  099%=      5-min Rain = 0
KMD1 070359Z 03005KT 06/06 A3025 RMK A01 T00620061  RH  099%=      5-min Rain = 0
KMD1 070400Z 03005KT 06/06 A3026 RMK A01 T00620061  RH  099%=      5-min Rain = 0
KMD1 070401Z 04004KT 06/06 A3026 RMK A01 T00620062  RH  099%=      5-min Rain = 0
KMD1 070402Z 06003KT 06/06 A3026 RMK A01 T00620061  RH  099%=      5-min Rain = 0
KMD1 070403Z 06003KT 06/06 A3026 RMK A01 T00620062  RH  099%=      5-min Rain = 0
KMD1 070404Z 04005KT 06/06 A3025 RMK A01 T00620062  RH  099%=      5-min Rain = 0
KMD1 070405Z 05006KT 06/06 A3026 RMK A01 T00620062  RH  100%=      5-min Rain = 0
KMD1 070406Z 04005KT 06/06 A3026 RMK A01 T00620062  RH  100%=      5-min Rain = 0
KMD1 070407Z 04007KT 06/06 A3026 RMK A01 T00620061  RH  099%=      5-min Rain = 0
KMD1 070408Z 03005KT 06/06 A3026 RMK A01 T00620061  RH  099%=      5-min Rain = 0
KMD1 070409Z 04004KT 06/06 A3026 RMK A01 T00610060  RH  099%=      5-min Rain = 0
KMD1 070410Z 04006KT 06/06 A3026 RMK A01 T00620061  RH  100%=      5-min Rain = 0
KMD1 070411Z 03005KT 06/06 A3026 RMK A01 T00620061  RH  100%=      5-min Rain = 0
KMD1 070412Z 04007KT 06/06 A3026 RMK A01 T00610061  RH  099%=      5-min Rain = 0
KMD1 070413Z 04006KT 06/06 A3026 RMK A01 T00610061  RH  099%=      5-min Rain = 0
KMD1 070414Z 03005KT 06/06 A3026 RMK A01 T00610061  RH  099%=      5-min Rain = 0
KMD1 070415Z 04005KT 06/06 A3026 RMK A01 T00620061  RH  100%=      5-min Rain = 0
KMD1 070416Z 04007KT 06/06 A3026 RMK A01 T00620061  RH  100%=      5-min Rain = 0
KMD1 070417Z 04007KT 06/06 A3026 RMK A01 T00620061  RH  100%=      5-min Rain = 0
KMD1 070418Z 03007KT 06/06 A3026 RMK A01 T00610060  RH  099%=      5-min Rain = 0
KMD1 070419Z 03008KT 06/06 A3026 RMK A01 T00610060  RH  099%=      5-min Rain = 0
KMD1 070420Z 03007KT 06/06 A3026 RMK A01 T00610060  RH  099%=      5-min Rain = 0
KMD1 070421Z 04007KT 06/06 A3026 RMK A01 T00610060  RH  099%=      5-min Rain = 0
KMD1 070422Z 04008KT 06/06 A3026 RMK A01 T00610060  RH  099%=      5-min Rain = 0
KMD1 070423Z 02008KT 06/06 A3026 RMK A01 T00610060  RH  099%=      5-min Rain = 0
KMD1 070424Z 03005KT 06/06 A3026 RMK A01 T00600059  RH  099%=      5-min Rain = 0
KMD1 070425Z 02005KT 06/06 A3026 RMK A01 T00600060  RH  099%=      5-min Rain = 0
KMD1 070426Z 02005KT 06/06 A3026 RMK A01 T00610060  RH  100%=      5-min Rain = 0
KMD1 070427Z 02006KT 06/06 A3026 RMK A01 T00610060  RH  100%=      5-min Rain = 0
KMD1 070428Z 02008KT 06/06 A3026 RMK A01 T00610060  RH  099%=      5-min Rain = 0
KMD1 070429Z 02006KT 06/06 A3026 RMK A01 T00610060  RH  099%=      5-min Rain = 0
KMD1 070430Z 02006KT 06/06 A3026 RMK A01 T00610060  RH  099%=      5-min Rain = 0
KMD1 070431Z 02006KT 06/06 A3026 RMK A01 T00610060  RH  100%=      5-min Rain = 0
KMD1 070432Z 01006KT 06/06 A3026 RMK A01 T00610060  RH  100%=      5-min Rain = 0
KMD1 070433Z 02006KT 06/06 A3026 RMK A01 T00610060  RH  100%=      5-min Rain = 0
KMD1 070434Z 36006KT 06/06 A3027 RMK A01 T00610060  RH  100%=      5-min Rain = 0
KMD1 070435Z 00006KT 06/06 A3027 RMK A01 T00610060  RH  100%=      5-min Rain = 0
KMD1 070436Z 01005KT 06/06 A3027 RMK A01 T00600059  RH  100%=      5-min Rain = 0
KMD1 070437Z 00004KT 06/06 A3027 RMK A01 T00600060  RH  100%=      5-min Rain = 0
KMD1 070438Z 01004KT 06/06 A3027 RMK A01 T00600060  RH  100%=      5-min Rain = 0
KMD1 070439Z 01005KT 06/06 A3027 RMK A01 T00600060  RH  100%=      5-min Rain = 0
KMD1 070440Z 01005KT 06/06 A3026 RMK A01 T00600060  RH  100%=      5-min Rain = 0
KMD1 070441Z 02006KT 06/06 A3026 RMK A01 T00600060  RH  100%=      5-min Rain = 0
KMD1 070442Z 03005KT 06/06 A3026 RMK A01 T00600060  RH  100%=      5-min Rain = 0
KMD1 070443Z 02006KT 06/06 A3026 RMK A01 T00600060  RH  100%=      5-min Rain = 0
KMD1 070444Z 04006KT 06/06 A3026 RMK A01 T00600060  RH  100%=      5-min Rain = 0
KMD1 070445Z 04007KT 06/06 A3026 RMK A01 T00600060  RH  100%=      5-min Rain = 0
KMD1 070446Z 03007KT 06/06 A3026 RMK A01 T00600060  RH  100%=      5-min Rain = 0
KMD1 070447Z 04007KT 06/06 A3026 RMK A01 T00600060  RH  100%=      5-min Rain = 0
KMD1 070448Z 04006KT 06/06 A3025 RMK A01 T00600060  RH  100%=      5-min Rain = 0
KMD1 070449Z 05005KT 06/06 A3025 RMK A01 T00600060  RH  100%=      5-min Rain = 0
KMD1 070450Z 04006KT 06/06 A3025 RMK A01 T00600060  RH  100%=      5-min Rain = 0
KMD1 070451Z 04007KT 06/06 A3025 RMK A01 T00600059  RH  100%=      5-min Rain = 0
KMD1 070452Z 04006KT 06/06 A3025 RMK A01 T00600059  RH  100%=      5-min Rain = 0
KMD1 070453Z 05006KT 06/06 A3025 RMK A01 T00600060  RH  100%=      5-min Rain = 0
KMD1 070454Z 05006KT 06/06 A3025 RMK A01 T00600060  RH  100%=      5-min Rain = 0
KMD1 070455Z 04005KT 06/06 A3025 RMK A01 T00600060  RH  100%=      5-min Rain = 0
KMD1 070456Z 04005KT 06/06 A3025 RMK A01 T00590059  RH  100%=      5-min Rain = 0
KMD1 070457Z 04004KT 06/06 A3025 RMK A01 T00590059  RH  100%=      5-min Rain = 0
KMD1 070458Z 04006KT 06/06 A3025 RMK A01 T00590059  RH  100%=      5-min Rain = 0
KMD1 070459Z 05007KT 06/06 A3025 RMK A01 T00600060  RH  100%=      5-min Rain = 0
KMD1 070500Z 03007KT 06/06 A3025 RMK A01 T00600060  RH  100%=      5-min Rain = 0
KMD1 070501Z 02008KT 06/06 A3025 RMK A01 T00600060  RH  100%=      5-min Rain = 0
KMD1 070502Z 05005KT 06/06 A3025 RMK A01 T00600059  RH  100%=      5-min Rain = 0
KMD1 070503Z 05006KT 06/06 A3025 RMK A01 T00600060  RH  100%=      5-min Rain = 0
KMD1 070504Z 04006KT 06/06 A3025 RMK A01 T00590059  RH  100%=      5-min Rain = 0
KMD1 070505Z 03007KT 06/06 A3025 RMK A01 T00590059  RH  100%=      5-min Rain = 0
KMD1 070506Z 03008KT 06/06 A3025 RMK A01 T00590059  RH  100%=      5-min Rain = 0
KMD1 070507Z 03008KT 06/06 A3025 RMK A01 T00590059  RH  100%=      5-min Rain = 0
KMD1 070508Z 03008KT 06/06 A3025 RMK A01 T00590059  RH  100%=      5-min Rain = 0
KMD1 070509Z 04008KT 06/06 A3025 RMK A01 T00590059  RH  100%=      5-min Rain = 0
KMD1 070510Z 04007KT 06/06 A3025 RMK A01 T00590059  RH  100%=      5-min Rain = 0
KMD1 070511Z 04007KT 06/06 A3025 RMK A01 T00590058  RH  100%=      5-min Rain = 0
KMD1 070512Z 05007KT 06/06 A3025 RMK A01 T00590059  RH  100%=      5-min Rain = 0
KMD1 070513Z 05006KT 06/06 A3025 RMK A01 T00590059  RH  100%=      5-min Rain = 0
KMD1 070514Z 05005KT 06/06 A3025 RMK A01 T00590058  RH  100%=      5-min Rain = 0
KMD1 070515Z 04005KT 06/06 A3025 RMK A01 T00580058  RH  100%=      5-min Rain = 0
KMD1 070516Z 02005KT 06/06 A3026 RMK A01 T00590059  RH  100%=      5-min Rain = 0
KMD1 070517Z 03003KT 06/06 A3026 RMK A01 T00590059  RH  100%=      5-min Rain = 0
KMD1 070518Z 03004KT 06/06 A3026 RMK A01 T00590058  RH  100%=      5-min Rain = 0
KMD1 070519Z 04005KT 06/06 A3026 RMK A01 T00580058  RH  100%=      5-min Rain = 0
KMD1 070520Z 04007KT 06/06 A3026 RMK A01 T00590059  RH  100%=      5-min Rain = 0
KMD1 070521Z 04006KT 06/06 A3026 RMK A01 T00580058  RH  100%=      5-min Rain = 0
KMD1 070522Z 05005KT 06/06 A3026 RMK A01 T00580058  RH  100%=      5-min Rain = 0
KMD1 070523Z 04006KT 06/06 A3026 RMK A01 T00580058  RH  100%=      5-min Rain = 0
KMD1 070524Z 04007KT 06/06 A3026 RMK A01 T00580058  RH  100%=      5-min Rain = 0
KMD1 070525Z 03006KT 06/06 A3026 RMK A01 T00580058  RH  100%=      5-min Rain = 0
KMD1 070526Z 03005KT 06/06 A3026 RMK A01 T00580058  RH  100%=      5-min Rain = 0
KMD1 070527Z 03004KT 06/06 A3026 RMK A01 T00580058  RH  100%=      5-min Rain = 0
KMD1 070528Z 03005KT 06/06 A3026 RMK A01 T00580058  RH  100%=      5-min Rain = 0
KMD1 070529Z 02004KT 06/06 A3026 RMK A01 T00580058  RH  100%=      5-min Rain = 0
KMD1 070530Z 03004KT 06/06 A3026 RMK A01 T00580058  RH  100%=      5-min Rain = 0
KMD1 070531Z 04005KT 06/06 A3026 RMK A01 T00580058  RH  100%=      5-min Rain = 0
KMD1 070532Z 02004KT 06/06 A3026 RMK A01 T00580058  RH  100%=      5-min Rain = 0
KMD1 070533Z 04003KT 06/06 A3026 RMK A01 T00580058  RH  100%=      5-min Rain = 0
KMD1 070534Z 03004KT 06/06 A3026 RMK A01 T00580058  RH  100%=      5-min Rain = 0
KMD1 070535Z 03004KT 06/06 A3026 RMK A01 T00580057  RH  100%=      5-min Rain = 0
KMD1 070536Z 03004KT 06/06 A3026 RMK A01 T00580058  RH  100%=      5-min Rain = 0
KMD1 070537Z 02004KT 06/06 A3026 RMK A01 T00580058  RH  100%=      5-min Rain = 0
KMD1 070538Z 02004KT 06/06 A3026 RMK A01 T00580058  RH  100%=      5-min Rain = 0
KMD1 070539Z 02005KT 06/06 A3026 RMK A01 T00580058  RH  100%=      5-min Rain = 0
KMD1 070540Z 01005KT 06/06 A3026 RMK A01 T00580058  RH  100%=      5-min Rain = 0
KMD1 070541Z 02005KT 06/06 A3026 RMK A01 T00580058  RH  100%=      5-min Rain = 0
KMD1 070542Z 00005KT 06/06 A3027 RMK A01 T00580058  RH  100%=      5-min Rain = 0
KMD1 070543Z 00004KT 06/06 A3027 RMK A01 T00580058  RH  100%=      5-min Rain = 0
KMD1 070544Z 01006KT 06/06 A3027 RMK A01 T00580058  RH  100%=      5-min Rain = 0
KMD1 070545Z 01006KT 06/06 A3027 RMK A01 T00580058  RH  100%=      5-min Rain = 0
KMD1 070546Z 01006KT 06/06 A3027 RMK A01 T00570057  RH  100%=      5-min Rain = 0
KMD1 070547Z 01007KT 06/06 A3027 RMK A01 T00570057  RH  100%=      5-min Rain = 0
KMD1 070548Z 01006KT 06/06 A3027 RMK A01 T00570057  RH  100%=      5-min Rain = 0
KMD1 070549Z 02006KT 06/06 A3027 RMK A01 T00570057  RH  100%=      5-min Rain = 0
KMD1 070550Z 02006KT 06/06 A3027 RMK A01 T00570057  RH  100%=      5-min Rain = 0
KMD1 070551Z 02006KT 06/06 A3027 RMK A01 T00570057  RH  100%=      5-min Rain = 0
KMD1 070552Z 02005KT 06/06 A3027 RMK A01 T00570057  RH  100%=      5-min Rain = 0
KMD1 070553Z 01006KT 06/06 A3026 RMK A01 T00570057  RH  100%=      5-min Rain = 0
KMD1 070554Z 02005KT 06/06 A3026 RMK A01 T00570056  RH  100%=      5-min Rain = 0
KMD1 070555Z 02004KT 06/06 A3026 RMK A01 T00560056  RH  100%=      5-min Rain = 0
KMD1 070556Z 01006KT 06/06 A3026 RMK A01 T00570057  RH  100%=      5-min Rain = 0
KMD1 070557Z 01006KT 06/06 A3027 RMK A01 T00560056  RH  100%=      5-min Rain = 0
KMD1 070558Z 02006KT 06/06 A3027 RMK A01 T00560056  RH  100%=      5-min Rain = 0
KMD1 070559Z 01006KT 06/06 A3027 RMK A01 T00550055  RH  100%=      5-min Rain = 0

Page generated in 0.0865 seconds.